                ,  0.290,  0.386,  0.483,  0.580,  0.676,  0.773,  0.869,  0.966,  1.063,  1.159,  1.256,  1.352,  1.449,  1.545,  1.642,  1.739,  1.835,  1.932,  2.028,  2.125,  2.222,  2.318,  2.415,  2.511,  2.608,  2.705,  2.801,  2.898,  2.994,  3.091,  3.188,  3.284,  3.381,  3.477,  3.574,  3.671,  3.767,  3.864,  3.960,  4.057,  4.153,  4.250,  4.347,  4.443,  4.540,  4.636,  4.733,  4.830,  4.926,  5.023,  5.119,  5.216,  5.313,  5.409,  5.506,  5.602,  5.699,  5.796
2000/12/12 00:00,  999.0,    9.9,   10.2,    9.2,   10.0,   10.2,    8.2,    6.3,    4.8,    3.2,    2.7,    2.6,  999.0,  999.0,  999.0,  999.0,  999.0,  999.0,  999.0,  999.0,  999.0,  999.0,  999.0,  999.0,  999.0,  999.0,  999.0,  999.0,  999.0,  999.0,  999.0,  999.0,  999.0,  999.0,  999.0,  999.0,  999.0,  999.0,  999.0,  999.0,  999.0,  999.0,  999.0,  999.0,  999.0,  999.0,  999.0,  999.0,  999.0,  999.0,  999.0,  999.0,  999.0,  999.0,  999.0,  999.0,  999.0,  999.0
2000/12/12 00:10,  999.0,    9.4,   10.5,   10.7,   10.5,   10.3,    8.0,    6.4,    5.1,    3.4,    2.8,    2.8,    2.0,  999.0,   -3.2,  999.0,  999.0,  999.0,  999.0,    4.3,  999.0,  999.0,  999.0,  999.0,  999.0,  999.0,  999.0,  999.0,  999.0,  999.0,  999.0,  999.0,  999.0,  999.0,  999.0,  999.0,  999.0,  999.0,  999.0,  999.0,  999.0,  999.0,  999.0,  999.0,  999.0,  999.0,  999.0,  999.0,  999.0,  999.0,  -41.4,  -41.1,  999.0,  -41.6,  999.0,  999.0,  -41.3,  -41.3
2000/12/12 00:20,  999.0,   10.4,   10.1,   10.4,   10.5,   10.2,    8.1,    6.2,    4.8,    3.8,    2.8,    2.5,  999.0,  999.0,  999.0,    1.4,    5.3,    3.8,    4.8,  999.0,  999.0,  999.0,   18.4,  999.0,  999.0,  999.0,   16.2,   15.6,  999.0,   14.7,   14.1,   12.7,   12.3,   12.3,   11.4,   10.6,  999.0,   10.0,    9.1,    7.3,    7.1,    6.3,  999.0,    4.8,    5.5,    5.3,    4.5,   -4.1,    0.3,    1.5,    0.4,    0.6,    0.5,    1.3,  999.0,   -0.2,    0.7,    0.5
2000/12/12 00:30,  999.0,    9.2,    9.2,    9.6,    9.5,    9.7,    7.0,    6.4,    5.5,    3.8,    2.5,    2.4,    2.1,    2.3,    2.1,  999.0,  999.0,    5.6,    5.6,    5.6,  999.0,  999.0,  999.0,  999.0,  999.0,  999.0,  999.0,  999.0,  999.0,  999.0,  999.0,  999.0,  999.0,  999.0,  999.0,  999.0,  999.0,  999.0,  999.0,  999.0,  999.0,  999.0,  999.0,  999.0,  999.0,  999.0,  999.0,  999.0,  999.0,  999.0,  999.0,  999.0,  999.0,  999.0,  999.0,  999.0,  999.0,  999.0
2000/12/12 00:40,  999.0,    8.6,    8.8,    9.3,    9.6,    8.5,    7.2,    5.2,    4.5,    2.1,    2.0,    2.3,    1.6,    0.5,    0.6,  999.0,  999.0,    6.3,    6.1,    5.2,    4.6,    9.3,    6.8,  999.0,  999.0,  999.0,  999.0,  999.0,  999.0,   29.4,  999.0,  999.0,  999.0,  -11.4,  -12.4,  999.0,  999.0,  999.0,  999.0,  999.0,  999.0,  999.0,  -12.4,  999.0,   -0.9,   -0.5,  999.0,  999.0,  999.0,  999.0,  999.0,   -0.8,   -0.4,   -0.8,   -0.7,  999.0,  999.0,  999.0
2000/12/12 00:50,  999.0,    9.6,    9.2,    9.8,    9.3,    6.7,    5.9,    5.2,    3.7,    3.1,    2.8,    2.2,    1.0,    0.4,  999.0,    3.7,  999.0,    3.5,  999.0,   -0.7,    1.2,   -3.1,   -2.8,  999.0,  999.0,  999.0,  999.0,  999.0,  -16.5,  999.0,  999.0,  999.0,  999.0,  999.0,  999.0,  999.0,  999.0,  999.0,  999.0,  999.0,  -41.9,  -41.6,  -41.2,  -41.8,  -42.3,  -41.7,  -42.4,  999.0,  -42.2,  -41.5,  -42.3,  -41.1,  -42.3,  999.0,  -41.7,  -41.8,  -41.8,  -41.6
2000/12/12 01:00,  999.0,  999.0,   10.0,    9.7,    8.8,    7.7,    5.1,    3.9,    3.6,    2.7,    2.3,    1.6,  999.0,    0.1,  999.0,  999.0,  999.0,    2.4,  999.0,    5.1,  999.0,  999.0,  999.0,  999.0,  -14.5,  999.0,  999.0,  999.0,  999.0,  999.0,  999.0,  999.0,  -39.1,  999.0,  -41.8,  999.0,  999.0,    0.6,  -41.7,  -41.8,  -41.6,  -42.6,  -20.5,  -41.9,  -41.2,  -20.6,  -31.4,  -41.6,  -41.8,  -42.3,  -20.6,  -30.9,  -42.1,  -41.7,  -34.9,  -21.6,  -42.2,  -27.8
2000/12/12 01:10,  999.0,    6.9,   10.8,   10.7,    9.6,    7.8,    6.8,    4.8,    3.9,    3.2,    1.8,    1.3,    1.8,    2.2,  999.0,  999.0,  999.0,   -1.1,  999.0,  999.0,  999.0,  999.0,  999.0,  999.0,  999.0,  999.0,  999.0,  999.0,  999.0,  999.0,  -35.7,  -41.5,  -37.4,  999.0,  -41.0,  -36.3,  -41.5,  -32.4,  -41.6,  -38.0,  999.0,  -35.0,  -32.7,  999.0,  -26.1,  -33.5,  999.0,  -39.8,  -34.7,  -41.1,  999.0,  -25.4,  999.0,  999.0,  -21.2,  -42.4,  999.0,  999.0
2000/12/12 01:20,  999.0,    9.7,    9.4,   11.2,   10.8,   10.3,    8.1,    5.1,    4.2,    3.5,    2.9,    1.3,   -0.1,   -3.7,  999.0,   -5.2,  999.0,  999.0,  999.0,  999.0,  999.0,  999.0,  999.0,  -21.3,  999.0,  999.0,  999.0,  -40.5,  -40.1,  -40.9,  -42.0,  -39.9,  -41.1,  -41.4,  -42.0,  -41.8,  -42.1,  -42.0,  -41.9,  -41.9,  -42.0,  -41.2,  -41.6,  -41.8,  -41.9,  -41.5,  -42.1,  -41.6,  -41.6,  -41.8,  -41.5,  -41.6,  -42.0,  -41.8,  999.0,  -40.7,  -41.1,  -42.0
2000/12/12 01:30,  999.0,  999.0,    9.3,   11.3,   12.3,   10.6,    9.0,    7.2,    5.1,    3.0,    1.8,    3.5,    1.5,    1.3,    2.5,  999.0,  999.0,  999.0,  999.0,  -13.2,  -17.5,    9.1,  999.0,  999.0,  -38.0,  -24.7,  -38.5,  -41.9,  -40.7,  -20.1,  -41.3,  -20.6,  -31.9,  -31.6,  999.0,  -41.7,  999.0,    0.8,    1.0,  -42.1,  -30.7,  -42.1,  -42.0,  -41.6,  -41.9,  -41.9,  -34.7,  999.0,  999.0,  999.0,  999.0,  999.0,  -41.9,  999.0,  999.0,  -41.3,  999.0,  999.0
2000/12/12 01:40,  999.0,  999.0,    8.6,   10.0,   10.2,   10.0,    8.2,    7.3,    5.5,    4.3,    3.0,    2.1,    1.5,    0.7,   -0.0,  999.0,  999.0,  999.0,  999.0,  999.0,  999.0,  -41.0,  -41.5,  -42.2,  -42.4,  -41.9,  999.0,  -42.2,  -41.7,  -41.6,  -41.3,  -42.4,  -41.5,  -41.6,  -41.7,  -41.6,  -41.7,  -41.8,  -41.9,  -42.0,  -41.9,  -41.9,  -41.7,  -41.1,  -41.2,  999.0,  -41.8,  -41.9,  -41.8,  -42.1,  999.0,  -41.8,  -41.2,  -41.2,  -41.7,  -41.6,  -41.8,  -42.0
2000/12/12 01:50,  999.0,    9.1,    9.0,    9.8,    9.7,    9.6,    8.3,    4.7,    4.1,    2.6,    2.4,  999.0,   -0.5,    1.9,  999.0,  999.0,  999.0,  999.0,  999.0,  999.0,  999.0,  999.0,  -38.9,  -41.4,  -41.6,  -41.6,  -41.7,  -41.9,  -41.9,  -42.2,  -41.8,  -41.6,  -41.8,  -42.0,  -42.9,  -42.4,  -42.2,  -42.0,  -41.6,  -41.7,  -41.8,  -41.4,  -41.8,  -42.2,  -41.9,  -42.2,  -41.7,  -42.5,  -41.9,  -42.0,  999.0,  -42.3,  -41.6,  -41.7,  -41.8,  -41.6,  -42.2,  -41.4
2000/12/12 02:00,  999.0,  999.0,   16.7,    9.9,    9.5,    9.5,    6.5,    5.9,    4.0,    4.5,    1.9,  999.0,  999.0,  999.0,  999.0,  999.0,  999.0,  999.0,  999.0,  999.0,  -28.5,  999.0,  -33.6,  -37.2,  -38.7,  -39.4,  999.0,  -41.6,  -41.7,  -42.0,  -41.8,  -41.9,  -42.2,  -41.7,  -41.2,  -41.5,  -42.2,  -41.7,  -41.6,  -42.0,  -42.0,  -42.1,  -41.7,  -41.8,  -42.6,  -41.8,  -41.3,  -41.4,  -41.4,  -41.9,  -41.5,  -41.9,  -42.3,  -42.3,  -42.6,  -42.4,  -41.8,  -42.3
2000/12/12 02:10,  999.0,  999.0,  999.0,    8.3,    9.6,   10.0,    8.3,    6.5,    4.5,    2.8,    1.6,  999.0,  999.0,    2.8,   -3.5,   -6.9,  999.0,  999.0,  999.0,  -15.5,  999.0,  999.0,  999.0,  999.0,  -38.3,  -42.0,  -41.9,  -42.0,  -42.0,  -41.5,  -41.7,  -41.4,  -41.5,  -41.6,  -42.0,  -41.6,  -42.2,  -42.4,  -42.4,  999.0,  -42.0,  -42.2,  -42.2,  -41.7,  -41.6,  -41.8,  -43.0,  -41.3,  -41.4,  999.0,  -41.3,  -41.5,  -41.7,  -41.9,  -41.6,  -41.2,  -41.9,  -41.9
2000/12/12 02:20,  999.0,   22.5,    8.4,    8.5,    9.5,    9.8,    6.9,    5.3,    4.1,    3.4,    1.2,  999.0,  999.0,    0.3,    0.3,  999.0,  999.0,  999.0,  999.0,  999.0,  999.0,  999.0,  999.0,  999.0,  999.0,  -39.6,  -41.0,  -41.1,  -42.1,  -41.3,  -41.5,  -41.3,  -41.6,  -41.9,  -41.4,  -41.5,  -41.0,  -41.4,  -41.8,  -41.6,  999.0,  -42.1,  -41.6,  -41.5,  -41.7,  -41.4,  999.0,  -41.5,  -41.9,  -41.6,  -42.5,  -41.4,  999.0,  999.0,  999.0,  -42.0,  999.0,  -41.7
2000/12/12 02:30,  999.0,  999.0,    8.4,    7.9,    8.6,    8.4,    5.5,    5.8,    2.1,   -0.5,    1.7,    3.5,  999.0,    2.7,   -1.1,  999.0,  999.0,  999.0,  999.0,  999.0,  999.0,  999.0,  999.0,  999.0,  999.0,  999.0,  999.0,  -38.7,  -41.9,  -41.5,  -41.7,  -42.2,  -42.5,  -42.2,  -41.6,  -42.2,  -42.0,  -42.7,  -41.4,  -42.8,  999.0,  -42.3,  -41.6,  -41.5,  -41.5,  -41.7,  -41.8,  -41.6,  -41.2,  -41.6,  -42.8,  999.0,  -41.9,  -42.1,  -42.9,  -41.8,  999.0,  -41.0
2000/12/12 02:40,  999.0,  999.0,  999.0,    8.4,    9.2,    7.5,    6.7,    5.3,    3.4,    6.4,    0.9,    3.0,    1.1,  999.0,  999.0,  999.0,  999.0,  999.0,  999.0,  999.0,  999.0,  999.0,  999.0,  999.0,  -36.8,  999.0,  999.0,  999.0,  -38.8,  -41.4,  -42.2,  -42.0,  -42.0,  -42.0,  -41.6,  -41.8,  -41.8,  -41.8,  -41.4,  -42.1,  -41.9,  -41.9,  -42.3,  -41.8,  -42.4,  -42.0,  -41.4,  -41.9,  -41.5,  -42.1,  -42.2,  999.0,  -42.2,  999.0,  -42.9,  -42.6,  -41.9,  -41.5
2000/12/12 02:50,  999.0,  999.0,  999.0,    8.5,    8.9,    7.0,    6.6,    4.2,    3.9,  999.0,   -0.2,    4.5,  999.0,   -0.3,  999.0,  999.0,  999.0,  999.0,  999.0,  999.0,  999.0,  -34.1,  999.0,  999.0,  -42.7,  -40.5,  -41.9,  -40.6,  -41.7,  -41.9,  -41.7,  -42.0,  -41.5,  -41.8,  -41.5,  -41.8,  -42.5,  -42.0,  -42.3,  -42.2,  -42.0,  -41.7,  -41.9,  -42.0,  -42.2,  -41.3,  -41.7,  -41.9,  -42.0,  -41.2,  -41.6,  -42.1,  -41.9,  -42.1,  -41.8,  -41.8,  -41.9,  -42.1
2000/12/12 03:00,  999.0,    3.8,  999.0,    9.3,    9.0,    7.4,    4.8,    4.3,    4.0,  999.0,    0.1,    3.7,  999.0,    4.8,    5.6,    5.3,    8.0,  999.0,  999.0,  -11.4,   -7.9,   -6.2,   -3.7,  999.0,  -41.7,  -41.0,  -41.9,  -42.1,  999.0,  -41.9,  -41.8,  -41.1,  -42.0,  -41.4,  -40.3,  -41.7,  -28.4,  -32.5,  -31.7,  -32.9,  -41.2,  -41.5,  -42.1,  999.0,  -41.5,  -42.1,  -41.4,  999.0,  999.0,  999.0,  -30.3,  -34.6,   -1.7,  -11.6,  999.0,  -14.8,   -7.8,   -0.9
2000/12/12 03:10,  999.0,  999.0,  999.0,    7.9,    8.3,    7.1,    6.2,    5.5,    3.3,    3.6,    2.7,    3.4,    3.0,  999.0,  999.0,  999.0,  999.0,  999.0,  -21.4,  999.0,  999.0,  -30.4,  -32.9,  999.0,  -34.4,  -36.3,  -36.3,  -39.1,  -40.1,  -40.8,  -42.0,  -41.6,  -42.0,  -41.9,  -41.4,  -41.8,  -42.1,  -41.6,  -42.3,  -41.5,  999.0,  -42.3,  -41.3,  -41.6,  -41.8,  -41.5,  -41.1,  -41.5,  -42.6,  -41.6,  -42.4,  -42.1,  -41.5,  -41.8,  -42.2,  -41.6,  -42.3,  -42.4
2000/12/12 03:20,  999.0,  999.0,    8.2,    7.6,    8.4,  999.0,    5.4,    4.9,    2.8,  999.0,   -1.6,   -7.9,  999.0,  999.0,  999.0,  999.0,  999.0,  999.0,  999.0,  -21.0,  999.0,  -29.6,  -21.5,  -31.0,  -27.8,  999.0,  -35.0,  -31.1,  -32.4,  999.0,  -39.8,  -40.1,  -41.9,  -40.3,  -39.9,  -41.5,  -39.9,  -41.8,  -41.8,  -41.6,  -41.8,  -41.6,  -41.4,  -35.9,  -35.5,  999.0,  -41.6,  -41.9,  -42.6,  999.0,  999.0,  999.0,  999.0,  999.0,  999.0,  999.0,  999.0,  999.0
2000/12/12 03:30,  999.0,  999.0,  999.0,  999.0,    8.4,    9.2,  999.0,    4.9,    4.7,    2.6,    2.1,    2.9,    3.8,    4.7,    5.8,  999.0,   -1.7,    2.6,  999.0,  999.0,  999.0,  999.0,  999.0,  999.0,  999.0,  999.0,  -41.6,  -35.0,  -41.6,  -39.1,  -39.1,  -40.7,  999.0,  999.0,  -41.6,  -42.0,  -41.6,  999.0,  999.0,  -43.2,  -41.9,  -41.7,  -41.9,  -41.7,  -41.7,  -41.7,  -41.8,  -41.9,  -41.8,  -41.6,  -42.0,  -41.8,  -41.6,  999.0,  -42.1,  -41.9,  -41.4,  -42.2
2000/12/12 03:40,  999.0,  999.0,   19.1,   12.8,    9.5,    8.4,    7.8,    6.4,    4.4,    2.7,    1.5,    3.8,  999.0,    5.9,  999.0,  999.0,  999.0,  999.0,  999.0,  999.0,  999.0,  999.0,  999.0,  999.0,  999.0,  -36.3,  999.0,  -38.5,  -36.1,  -40.0,  -39.1,  -41.0,  -41.9,  999.0,  -42.1,  -42.1,  -41.7,  -41.6,  -42.4,  -42.3,  -41.7,  -41.9,  -42.4,  -42.3,  -41.3,  -41.3,  -41.6,  -41.7,  -41.6,  -42.4,  999.0,  -41.7,  -42.2,  -42.2,  -42.0,  999.0,  999.0,  -42.3
2000/12/12 03:50,  999.0,  999.0,  999.0,    9.0,    8.4,    7.8,    6.7,    4.5,    4.2,    4.3,    1.5,    0.0,    4.9,  999.0,   -4.0,  999.0,  999.0,  999.0,  999.0,  999.0,  999.0,  -30.5,  999.0,  999.0,  -32.1,  -35.1,  -38.2,  -41.0,  -41.1,  -42.3,  -40.1,  -42.5,  -42.2,  -41.5,  -40.1,  -40.8,  -41.6,  -41.6,  -41.7,  -41.8,  -41.5,  -42.0,  -42.5,  -41.6,  -41.6,  -41.5,  -41.1,  -41.6,  -41.7,  -41.7,  -41.7,  -41.8,  -41.2,  -41.8,  -41.6,  -41.2,  -41.7,  -41.3
2000/12/12 04:00,  999.0,  999.0,  999.0,    7.7,    8.6,    7.6,    5.9,    5.1,    6.3,    4.4,    4.7,  999.0,  999.0,  999.0,  -13.5,  999.0,  999.0,  999.0,  999.0,  999.0,  999.0,  999.0,  999.0,  -41.6,  -41.7,  -41.5,  -41.2,  999.0,  -41.6,  -41.7,  -42.2,  -42.1,  -41.9,  -41.3,  -41.9,  -42.2,  -42.5,  -43.0,  -42.0,  -41.9,  -42.3,  -41.8,  -42.5,  -42.2,  -42.4,  999.0,  -42.4,  -42.0,  -41.9,  -42.0,  999.0,  -41.4,  -41.2,  -42.4,  -41.7,  -42.2,  -41.3,  -42.1
2000/12/12 04:10,  999.0,  999.0,  999.0,    9.0,    7.8,    8.1,    8.0,    6.8,    7.4,    5.2,    4.8,  999.0,  999.0,  999.0,  999.0,  999.0,  999.0,  999.0,  999.0,  999.0,  999.0,  999.0,  999.0,  -33.9,  -36.7,  -37.3,  -39.0,  -41.1,  -41.7,  -42.2,  -42.1,  -41.9,  -42.0,  -42.5,  -42.0,  -41.3,  -42.1,  -41.9,  -42.7,  -42.3,  -42.4,  -42.1,  -41.8,  -41.7,  -41.8,  -42.2,  -42.0,  -42.1,  -42.2,  999.0,  -41.5,  -42.5,  -42.2,  -41.2,  -42.0,  -41.8,  999.0,  999.0
2000/12/12 04:20,  999.0,  999.0,  999.0,    7.4,    7.6,    8.1,    7.4,    6.3,    3.3,  999.0,    4.2,  999.0,  999.0,  999.0,  999.0,   -9.0,  999.0,  999.0,  -16.7,   -4.9,  999.0,  999.0,  -28.0,  -32.0,  -33.9,  -33.9,  -34.9,  -35.5,  -37.0,  -39.2,  999.0,  -42.3,  -40.9,  -41.4,  -41.8,  -41.5,  999.0,  -41.8,  -41.6,  -42.1,  -42.1,  -41.6,  999.0,  -42.1,  -42.1,  -41.9,  -42.3,  -41.6,  -41.6,  -41.1,  -41.9,  -41.6,  -41.7,  -41.8,  -41.6,  -42.0,  999.0,  -42.3
2000/12/12 04:30,  999.0,    4.6,  999.0,  999.0,    8.1,    7.4,    7.9,    7.1,    5.3,    5.2,    0.9,  999.0,   12.3,  999.0,  999.0,  999.0,  999.0,  999.0,  999.0,  999.0,  999.0,  -31.1,  -32.0,  -33.1,  -22.4,  999.0,  999.0,  -37.6,  -38.2,  -40.8,  -41.2,  -41.8,  -41.8,  999.0,  -41.6,  -42.0,  -42.3,  -41.1,  999.0,  -42.3,  -42.1,  -42.3,  -41.8,  -42.4,  -42.2,  999.0,  -40.8,  999.0,  -41.0,  -42.2,  -41.7,  -41.8,  -42.3,  -41.8,  -40.7,  -42.8,  -41.7,  -41.7
2000/12/12 04:40,  999.0,  999.0,    4.9,    6.5,    6.0,    6.6,    6.6,    4.8,    4.2,    2.8,    1.9,    6.3,    4.1,    4.1,    4.1,  999.0,  999.0,  999.0,    0.6,    0.1,  999.0,  999.0,  -28.1,  999.0,  999.0,  999.0,  -41.7,  -41.3,  -40.8,  -41.7,  -41.7,  -42.5,  999.0,  -41.6,  999.0,  -41.7,  -40.8,  999.0,  -41.7,  -41.0,  -41.8,  -41.9,  -41.2,  -41.7,  -42.2,  -41.8,  -42.1,  -42.5,  -42.0,  999.0,  -42.3,  999.0,  999.0,  999.0,  999.0,  999.0,  999.0,  999.0
2000/12/12 04:50,  999.0,  999.0,    5.7,    3.3,    6.9,    6.4,    5.7,    4.2,    4.2,    4.6,  999.0,    4.3,    4.8,    4.0,    3.3,  999.0,   -1.5,  999.0,  999.0,  999.0,  999.0,  999.0,   -1.1,  999.0,  999.0,  999.0,  999.0,  999.0,  999.0,  -36.7,  999.0,  -39.7,  -41.7,  -41.6,  -41.5,  -41.8,  -41.5,  -41.6,  -41.7,  -41.3,  -41.7,  -41.5,  999.0,  -41.8,  -42.5,  -41.4,  -41.2,  -41.3,  -41.0,  -41.2,  -41.3,  -41.4,    0.7,  -41.4,  -42.0,  -41.5,  -40.9,  -41.5
2000/12/12 05:00,  999.0,  999.0,    2.7,    6.0,    6.0,    8.0,    7.5,    5.4,    4.6,    5.1,    5.1,    4.2,    4.8,    4.2,    2.9,    2.2,  999.0,    7.4,  999.0,  999.0,  999.0,  999.0,    7.7,    9.6,  999.0,  999.0,  999.0,  999.0,  -35.7,  -37.5,  -38.7,  -35.9,  -27.8,  -41.3,  -39.6,  999.0,  -41.5,  -38.5,  -41.5,  -41.3,  -41.9,  -42.2,  -42.0,  -41.9,  -41.6,  -41.5,  -41.9,  -41.4,  -41.4,  -41.4,  -42.0,  -42.3,  -41.3,  -41.5,  -41.9,  -41.3,  999.0,  999.0
2000/12/12 05:10,  999.0,  999.0,    7.4,    7.0,    6.0,    7.1,    5.3,    4.7,    5.5,    4.4,    4.6,    4.5,    3.6,    4.1,    4.3,    4.1,  999.0,  999.0,  999.0,  999.0,  999.0,  999.0,  999.0,  999.0,  999.0,  999.0,  999.0,  999.0,  -31.8,  999.0,  -33.8,  -38.9,  -37.3,  -38.9,  -42.8,  -38.2,  -41.1,  -40.7,  -41.1,  999.0,  -41.9,  -41.4,  -42.6,  -41.2,  -41.8,  -41.5,  -41.9,  -41.6,  -41.8,  -41.3,  999.0,  -41.0,  999.0,  999.0,  -41.8,  -42.1,  999.0,  -41.5
2000/12/12 05:20,  999.0,  999.0,    7.8,    6.2,    6.8,    6.0,    5.2,    4.3,    4.8,    5.1,    3.9,    3.1,    4.0,    5.1,    3.5,  999.0,    1.4,  999.0,  999.0,  999.0,  999.0,  999.0,  999.0,  999.0,  999.0,  999.0,  -33.0,  999.0,  -35.5,  -37.6,  -39.3,  -40.4,  -41.3,  -41.5,  999.0,  -41.4,  -41.7,  999.0,  -41.5,  -41.5,  -41.6,  -41.5,  -41.6,  -41.3,  -41.2,  -41.5,  -41.7,  -42.5,  -41.7,  -41.4,  -41.5,  999.0,  999.0,  999.0,  999.0,  999.0,  999.0,  999.0
2000/12/12 05:30,  999.0,  999.0,    4.6,    5.4,    4.5,    5.7,    3.9,    2.9,    4.2,    4.3,    3.5,    3.4,    4.1,    4.0,  999.0,   -1.7,  999.0,  999.0,  999.0,  999.0,  -30.9,  -16.4,  -34.4,  999.0,  999.0,  999.0,  999.0,  -36.1,  -37.5,  999.0,  -41.9,  -41.3,  999.0,  -42.3,  -41.8,  -41.7,  -42.0,  -42.2,  -42.0,  -41.5,  -42.0,  -41.1,  -41.6,  -42.2,  -42.5,  -42.1,  -41.8,  -41.6,  999.0,  -41.7,  -42.9,  -42.2,  -42.1,  -42.0,  -41.7,  999.0,  -42.6,  -41.4
2000/12/12 05:40,  999.0,    1.9,    6.2,    6.7,    6.6,    5.7,    4.3,    4.7,    5.6,    5.9,    4.4,    1.9,    2.2,    2.5,  999.0,    3.8,  999.0,  999.0,  999.0,  999.0,  999.0,  999.0,  999.0,  999.0,  999.0,  999.0,  999.0,  -42.4,  -40.2,  -42.4,  -42.1,  -42.1,  -42.1,  -42.2,  -42.4,  -42.2,  -42.2,  -41.5,  -41.4,  -41.9,  -42.0,  -41.7,  -42.8,  -42.0,  -41.3,  -41.8,  -42.1,  999.0,  999.0,  -42.2,  999.0,  999.0,  999.0,  -41.8,  -41.2,  999.0,  -41.4,  -41.6
2000/12/12 05:50,  999.0,    5.8,   14.7,    4.8,    6.0,    5.5,    5.6,   -2.7,    4.4,    6.6,    4.4,    4.1,    3.5,    2.3,    2.3,  999.0,  999.0,   -5.6,  999.0,  -11.3,  999.0,  999.0,  999.0,  -24.5,  999.0,  999.0,  999.0,  -42.0,  -42.5,  -42.2,  -42.4,  999.0,  -42.7,  -42.2,  -42.6,  -42.8,  -42.2,  -42.3,  -42.3,  -42.1,  -42.4,  -42.4,  -42.5,  -42.5,  -42.2,  -41.8,  -41.7,  -42.2,  999.0,  -42.3,  -42.2,  -42.3,  -42.5,  -42.3,  -42.6,  -42.7,  -42.7,  -42.5
2000/12/12 06:00,  999.0,  999.0,  999.0,    3.3,    6.0,    3.2,    3.4,    4.5,    3.6,    3.1,    2.8,    4.5,    4.5,    2.6,   -3.1,    1.8,  999.0,  999.0,  999.0,  999.0,  999.0,  999.0,  999.0,  999.0,  999.0,  -35.5,  -38.0,  999.0,  -40.7,  -41.7,  -42.3,  -42.5,  -42.3,  -42.1,  -42.6,  -42.6,  -42.5,  -42.6,  -42.5,  -42.6,  -42.5,  -42.6,  -42.7,  -42.4,  -42.3,  -42.5,  -42.2,  -42.7,  -42.4,  -42.3,  -42.4,  -42.8,  -43.0,  -42.5,  -42.4,  -42.3,  -42.7,  -42.5
2000/12/12 06:10,  999.0,   19.4,  999.0,    7.0,    6.0,    5.6,    1.5,    2.5,    3.2,    2.3,    1.8,    1.8,    1.8,    2.7,    1.9,    2.4,    2.9,  999.0,  999.0,  999.0,  999.0,  999.0,  999.0,  999.0,  -38.3,  -40.4,  999.0,  -42.3,  -42.3,  -41.7,  -42.4,  -41.7,  -42.3,  -42.3,  -42.1,  -41.5,  -42.3,  -42.1,  -41.7,  -42.3,  -42.0,  -42.3,  -42.1,  -42.0,  -42.5,  -42.5,  -42.2,  -42.0,  -42.1,  -41.8,  -41.8,  -42.2,  -42.1,  999.0,  999.0,  -42.0,  -42.6,  -42.4
2000/12/12 06:20,  999.0,  999.0,    3.0,    6.0,    6.4,    6.0,    4.1,    2.0,    4.0,    3.4,    3.1,    3.8,    3.6,    2.0,    2.9,    3.5,    3.3,    2.8,    1.5,    1.7,  999.0,  999.0,  999.0,  999.0,  999.0,  999.0,  999.0,  999.0,  -41.3,  -41.8,  -35.6,  999.0,  -42.4,  -27.9,  -28.1,  -41.5,  -42.1,  -41.6,  -33.6,  -41.6,  -41.6,  -41.4,  -18.5,   14.6,  -28.3,  -41.7,  -13.6,  -21.5,  -13.6,  -41.6,  -41.4,  -40.7,  999.0,  -21.5,   21.5,   -1.1,    0.5,  -19.9
2000/12/12 06:30,  999.0,  999.0,  999.0,    6.4,    5.3,    5.6,    5.6,    4.2,    5.2,    5.7,    5.3,  999.0,    1.7,    4.4,    4.5,    5.6,    6.0,    4.4,    4.4,    4.1,    1.9,  999.0,  999.0,  999.0,  999.0,  999.0,  999.0,  -39.5,  999.0,  -41.5,  -41.5,  -42.0,  -41.5,  -41.7,  -41.6,  -41.5,  -42.1,  -42.0,  999.0,  -41.9,  -41.7,  -41.7,  -41.9,  -41.7,  -41.5,  -41.7,  -41.8,  -41.7,  -41.7,  -41.7,  -42.4,  -41.4,  -42.2,  -42.1,  -41.6,  -41.3,  -41.6,  -42.0
2000/12/12 06:40,  999.0,  999.0,    8.0,    7.2,    5.3,    8.3,    5.7,    5.1,    5.8,    5.9,    5.1,    6.8,    3.2,    4.1,    6.1,    6.0,    6.2,  999.0,    5.0,    3.1,    1.5,  999.0,  999.0,  999.0,  999.0,  999.0,  999.0,  999.0,  999.0,  999.0,  999.0,  999.0,  999.0,  -41.1,  -41.2,  -42.1,  -41.6,  999.0,  -41.4,  -41.4,  -41.4,  -41.3,  -41.6,  -42.1,  -42.2,  -41.6,  -41.1,  -42.1,  -41.8,  -41.4,  -41.8,  -41.4,  999.0,  -41.1,  -41.8,  999.0,  -41.7,  -41.8
2000/12/12 06:50,  999.0,    5.6,    8.5,    6.3,    6.4,    6.4,    5.1,    8.0,    6.7,    6.0,    4.7,    4.3,    6.0,    5.1,    5.6,    7.9,  999.0,    4.5,    4.9,    4.6,    2.4,  999.0,    4.1,  999.0,  999.0,  999.0,  999.0,  999.0,  999.0,  -41.1,  -41.4,  -41.4,  -41.7,  -41.4,  -42.5,  -42.0,  -41.7,  -41.7,  -41.7,  -41.9,  999.0,  -41.9,  -42.2,  -41.6,  -41.5,  999.0,  -41.7,  -42.2,  -41.7,  -41.6,  -42.1,  -42.1,  -41.9,  -42.1,  -42.1,  -41.7,  -42.2,  -42.0
2000/12/12 07:00,  999.0,  999.0,    8.2,    5.7,    6.6,    7.4,    7.7,    5.4,    7.7,    5.4,    5.5,    1.5,    4.9,    2.2,    4.5,    8.1,  999.0,    5.2,    4.8,    5.0,    5.4,  999.0,  999.0,  999.0,  999.0,  999.0,  999.0,  999.0,  999.0,  999.0,  -42.1,  -41.7,  -41.4,  999.0,  -41.8,  -41.5,  -41.7,  -41.7,  -42.0,  999.0,  -41.7,  -41.8,  -41.6,  -41.8,  -41.5,  -41.5,  -41.4,  -41.6,  -41.4,  -41.8,  -41.4,  -41.4,  -41.7,  -41.8,  -42.0,  -41.8,  -42.2,  -41.8
2000/12/12 07:10,  999.0,  999.0,    8.3,  999.0,    6.4,    6.7,    6.7,    7.5,    9.8,    8.5,    6.5,    6.8,    4.2,    5.8,    6.2,    7.8,  999.0,    6.3,    5.5,    5.2,    3.3,  999.0,  999.0,  999.0,  999.0,  999.0,  999.0,  999.0,  -34.1,  -35.6,  -37.5,  -39.3,  -39.8,  -40.9,  -41.4,  -41.3,  -41.4,  -41.2,  -41.7,  -41.1,  -41.0,  -41.2,  -41.2,  -41.5,  -41.3,  -41.3,  -41.3,  -41.5,  -41.3,  -41.8,  -41.2,  -41.2,  -41.2,  -41.2,  -41.2,  -41.1,  -41.4,  -41.3
2000/12/12 07:20,  999.0,  999.0,    6.4,    7.5,    6.7,    6.7,    5.4,    5.6,    6.7,    6.0,    5.4,    4.5,  999.0,    3.9,    5.5,  999.0,    5.1,    3.9,    5.3,    4.8,    2.4,    0.9,  999.0,  999.0,  999.0,  999.0,  999.0,  999.0,  999.0,  -39.0,  -39.6,  -41.7,  -41.7,  -42.1,  -42.0,  -41.6,  999.0,  -41.6,  -41.5,  -42.2,  -41.8,  -42.2,  -41.7,  -41.5,  -42.0,  -41.9,  -41.3,  -41.4,  -41.7,  -42.3,  -41.6,  999.0,  999.0,  -42.0,  -41.6,  -41.6,  -41.6,  -41.7
2000/12/12 07:30,  999.0,    7.9,    8.6,    7.8,    7.2,    6.6,    6.8,    7.2,    8.5,    5.8,    6.1,    5.4,    1.5,    4.9,    7.9,    6.4,    5.8,    5.8,    5.0,    4.2,    3.5,  999.0,  999.0,  999.0,  999.0,  999.0,   16.5,   15.3,  999.0,   -7.9,  999.0,  -30.4,  -12.6,  999.0,  -26.4,  999.0,  -38.0,  -39.4,    5.6,  -40.2,  -33.3,  -41.5,  -41.4,  -41.5,  -41.6,  -41.6,  -41.4,  -41.0,  -41.4,  -40.9,  -40.8,  -41.2,  -41.3,  -41.5,  -41.2,  -41.2,  -41.4,  -41.7
2000/12/12 07:40,  999.0,    4.8,    5.8,    6.3,    7.3,    8.5,    7.0,    7.2,    7.1,    5.4,    4.9,    3.4,  999.0,    4.8,    7.3,    6.9,    5.5,    2.8,    4.0,    4.9,  999.0,  999.0,  999.0,  999.0,   39.2,   41.8,   26.1,   25.5,   42.1,  999.0,   23.6,  999.0,   22.0,   21.9,  999.0,   11.4,    0.4,   42.2,   10.1,   10.5,   21.6,  999.0,    1.5,  999.0,  -42.0,    0.7,    1.2,   21.0,  -21.2,   -0.1,  -21.0,   -2.3,    0.3,   13.8,    6.6,  -20.6,   10.9,   -7.6
2000/12/12 07:50,  999.0,    6.9,    6.2,    6.7,    6.3,    6.7,    7.0,    7.5,    6.3,    4.6,  999.0,    4.8,  999.0,   21.7,   13.9,   20.7,  999.0,    6.8,   12.5,   11.4,   21.6,   18.4,   23.9,   24.8,   28.2,   17.8,   24.8,   28.6,   30.1,   29.1,   33.5,   33.0,   37.6,   36.5,   35.6,   38.8,   37.6,   40.5,   42.9,   38.7,   40.1,   40.1,   41.7,   41.4,   41.6,   42.0,   42.3,   41.8,   42.3,   41.7,   42.3,   41.5,   42.0,   41.5,   41.7,   41.7,   42.2,   41.9
2000/12/12 08:00,  999.0,    4.6,    5.4,    5.8,    6.8,    6.8,    6.5,    6.2,    5.4,    4.9,    5.1,  999.0,  999.0,  999.0,   21.4,   20.7,   19.5,   20.1,  999.0,   20.8,   22.2,   23.9,   25.4,   26.6,   28.0,   29.3,   29.9,   32.6,   34.1,   36.2,   37.4,   39.0,   39.9,   41.9,   41.7,   41.4,   41.5,   42.1,   42.2,   41.6,   41.9,   42.0,   42.0,   41.5,   41.3,   41.9,   42.2,   42.1,   42.3,   42.0,   41.9,   42.3,   42.6,   42.2,   42.0,   41.4,   41.6,   41.8
2000/12/12 08:10,  999.0,    3.3,    4.7,    6.1,    6.6,    7.2,    7.9,    7.0,    5.4,    6.8,  999.0,  999.0,  999.0,  999.0,  999.0,  999.0,  999.0,  999.0,   23.0,   24.6,   26.2,   27.1,   27.3,   28.5,   30.6,   31.6,   34.3,   33.7,   34.8,   35.4,   37.6,   37.8,   39.4,   41.1,   42.1,   41.5,   42.6,   42.0,   41.7,  999.0,   42.2,   42.2,   41.5,   41.6,   42.2,   42.3,   42.2,   42.2,   42.0,   41.7,   42.2,   41.5,   41.6,  999.0,   42.1,   41.6,   41.3,   41.5
2000/12/12 08:20,  999.0,    5.3,    5.0,    6.8,    6.5,    6.6,    6.7,    7.5,    8.5,    7.0,  999.0,   19.9,   20.9,   21.8,   20.9,   20.9,  999.0,   22.0,   23.2,   23.4,   24.4,   28.2,   27.6,   30.3,   28.5,   33.2,   35.0,   35.6,   35.3,   38.6,  999.0,   40.9,   40.9,   41.8,   42.0,   42.1,   41.7,   42.0,   42.1,   42.4,   42.1,   41.9,   42.1,  999.0,   42.2,   42.1,   42.4,   41.9,   42.3,   42.0,   42.1,   42.0,   42.2,   41.9,   42.3,   42.0,   42.2,  999.0
2000/12/12 08:30,  999.0,    5.5,    5.8,    3.0,    6.3,    7.2,    6.1,    6.1,    8.9,    6.5,   14.0,   21.5,   21.4,   21.9,   20.9,  999.0,   21.7,   24.0,   22.4,   26.0,   25.6,   28.5,   30.1,   29.8,   32.8,   34.6,   35.0,   37.5,   38.7,   39.2,   39.6,   41.8,   42.0,   41.7,   41.4,   41.8,   41.5,   42.1,   42.0,   42.0,   42.0,   41.8,   41.5,   41.9,   41.7,   41.4,   41.9,   41.7,   41.8,   41.8,   41.9,   41.6,   41.5,   41.0,   41.7,   42.2,   41.7,   41.9
2000/12/12 08:40,  999.0,   21.7,   11.8,   14.5,   21.3,   20.9,  999.0,   21.2,  999.0,   20.4,   21.5,   21.4,   20.8,   20.3,   21.1,   22.0,   23.2,   25.4,   27.1,   29.3,   30.7,   36.1,   32.7,   36.9,   35.3,   38.6,   38.9,   40.7,   41.5,   41.9,   42.1,  999.0,   41.6,   41.9,   41.5,   41.6,   41.6,   41.7,  999.0,   41.6,   42.2,   42.7,  999.0,   41.9,   42.6,   41.4,   41.2,   41.3,   41.3,   41.6,   42.1,   42.4,   41.9,   41.8,   42.5,   42.3,   41.8,   42.0
2000/12/12 08:50,  999.0,  999.0,    4.4,    5.5,    6.1,    4.8,    5.2,   13.5,   14.1,   17.0,   21.0,   20.9,   20.8,  999.0,   20.9,   20.9,   20.9,  999.0,   25.4,   27.0,   19.4,   19.0,   31.1,   18.4,    2.6,   18.7,   41.1,   29.9,  999.0,   20.8,   30.0,    4.1,   29.4,   39.4,   -9.7,  -12.2,   14.2,  -20.7,  -42.0,  -14.3,  -25.9,  -10.8,   -0.3,   26.2,  -12.3,   41.9,  -39.7,   31.3,    0.3,   42.2,   42.2,    7.1,   20.5,   14.3,  999.0,    6.7,   14.2,    6.9
2000/12/12 09:00,  999.0,    3.0,    3.2,    4.8,    5.9,    5.2,    5.3,    7.4,    7.7,    6.5,    3.5,  999.0,  999.0,  999.0,  999.0,  999.0,  999.0,   12.5,   15.5,    9.5,   12.1,   10.4,    6.3,    7.9,    4.1,    0.6,    3.3,    2.7,    1.7,    0.9,    0.5,    0.3,    0.7,    0.6,    0.3,    0.0,  999.0,    0.0,    0.7,    0.8,    0.4,    0.8,    0.7,    0.5,    0.4,    0.3,    0.4,    0.7,    1.3,    0.7,    1.1,    1.3,    0.8,    0.6,    0.3,    0.8,    0.6,    0.5
2000/12/12 09:10,  999.0,    2.0,    2.1,    4.0,    4.3,    5.5,    4.5,    5.3,    6.4,    4.5,    4.0,  999.0,    4.1,  999.0,   21.7,  999.0,   19.8,  999.0,   13.4,   12.1,   11.2,    9.5,    7.2,  -14.5,    3.4,    2.6,    0.4,  -20.5,  -20.1,    0.6,   -6.6,    0.4,  -13.8,   -6.4,  -20.6,  -20.4,  -41.6,  -27.5,  -27.7,  -20.5,   -9.9,  -13.6,    0.3,   -9.9,    0.6,  -10.0,  -41.6,    0.7,    1.1,  -13.4,    0.8,    0.8,    1.2,    1.3,   -6.7,    0.6,  999.0,    0.5
2000/12/12 09:20,  999.0,    3.4,    4.7,    5.6,    5.1,    6.4,    5.2,    6.2,    7.7,    6.5,    4.9,    0.2,   -1.1,    1.5,    3.6,    1.9,   18.4,   -5.6,   -7.5,   -5.2,    5.4,   -0.3,   -0.3,  999.0,   -0.8,   -5.1,  -20.9,  -11.0,  -21.0,  -20.9,  999.0,   -0.5,   -0.7,   -0.1,  -21.6,  -14.2,   -0.1,  -21.6,   -0.6,   -4.1,   -9.2,  -14.2,  -31.7,  -19.3,  -31.4,  -21.6,  -16.6,   -9.2,  -18.0,   -2.4,    0.1,  -41.8,  -28.4,  -21.0,  -10.3,  -10.9,    0.0,  -42.3
2000/12/12 09:30,  999.0,    3.9,    2.3,    4.6,    3.2,    3.7,    4.8,    6.8,    7.1,    5.5,    3.9,    2.0,    2.2,    0.7,   -0.6,  999.0,  999.0,  999.0,   16.8,   15.1,  999.0,   12.0,  999.0,  999.0,   -0.4,  999.0,  999.0,  999.0,    8.4,  999.0,  999.0,    5.7,    3.9,    3.2,  999.0,    1.5,    0.9,  999.0,    0.5,    0.8,  999.0,  999.0,    1.2,    1.2,    1.0,  999.0,  999.0,  999.0,  999.0,  999.0,  999.0,  999.0,  999.0,  999.0,  999.0,  999.0,  999.0,  999.0
2000/12/12 09:40,  999.0,    3.8,    3.3,    2.3,    3.8,    4.6,    5.0,    6.5,    7.5,    5.6,    1.5,    2.2,    2.1,    0.9,   -0.0,  999.0,  999.0,  999.0,  999.0,  999.0,  999.0,  999.0,  999.0,  999.0,  999.0,  999.0,  999.0,  999.0,  999.0,  999.0,  999.0,  999.0,  999.0,  999.0,  999.0,   -3.3,   -2.7,  999.0,   -1.0,   -0.8,   -1.0,   -0.6,   -2.4,   -1.0,   -2.1,   -3.2,   -1.9,   -0.6,   -1.1,   -2.7,  999.0,   -1.1,   -0.6,   -0.9,   -0.9,   -1.0,   -0.4,   -0.0
2000/12/12 09:50,  999.0,    4.5,    3.7,    2.7,    3.5,    4.6,    4.9,    6.6,    4.9,   -4.7,   -5.0,    0.8,    0.0,   11.9,  999.0,  999.0,  999.0,  999.0,  999.0,   39.1,   21.5,  -41.1,  -41.5,  999.0,  -41.9,  -20.8,  -21.2,   41.7,  999.0,   20.2,  999.0,    0.4,  -41.8,   -2.3,  -20.8,  -15.8,    0.1,    8.3,  -14.3,   -2.3,   -6.8,  -20.9,  -41.4,  -20.3,   -6.9,    0.0,  -13.7,   21.1,  -20.5,   -6.9,  -19.9,  -13.7,  -21.4,    0.6,  -10.7,  999.0,  -14.0,  -41.6
2000/12/12 10:00,  999.0,    4.9,    4.6,    4.5,    5.0,    4.8,    6.2,    7.2,    6.2,    4.8,    7.8,    8.1,   14.8,  999.0,  999.0,  999.0,  999.0,  999.0,  999.0,  999.0,  999.0,  999.0,   41.9,   -0.8,   -0.5,   -0.7,   20.6,  999.0,   -0.1,   -0.8,   27.9,   20.6,   27.3,   41.9,   32.7,   -0.7,   33.8,   33.2,   35.4,    2.6,   17.2,   26.3,    8.1,    7.3,    9.8,   21.2,   18.6,   17.5,   16.9,   19.9,    1.4,    6.5,    0.8,   14.5,   16.6,   16.2,    7.3,   20.1
2000/12/12 10:10,  999.0,    2.8,    4.3,    4.5,    4.6,    5.6,    6.7,    4.6,    3.7,   -9.0,  -10.8,   -7.8,   -6.7,  -21.3,  -21.5,  -19.7,  -14.5,   -9.5,  999.0,  999.0,   41.4,  999.0,  999.0,   41.8,  999.0,  999.0,   41.5,   42.2,   41.0,   42.0,   41.8,   41.9,   42.0,   41.5,   41.7,   14.2,   41.9,   27.8,   41.4,   40.8,   38.9,    0.4,   35.2,   22.4,   31.6,   41.9,   21.4,   21.6,   24.6,   23.0,   21.3,   16.1,   11.6,    9.9,    1.9,    6.0,   17.5,   11.1
2000/12/12 10:20,  999.0,    2.5,    0.2,    2.6,    3.6,    3.6,    4.1,    4.0,    4.2,    4.1,    4.1,    4.4,    4.7,   -1.0,  999.0,  999.0,  999.0,  999.0,  999.0,   11.3,    9.6,    7.1,   41.6,    2.6,   21.1,   21.5,   21.0,   21.0,   14.2,   21.3,   21.3,   21.0,   14.3,   22.6,  999.0,   41.4,   19.1,   30.4,    0.3,   21.1,   31.7,   26.4,   41.7,   21.6,   27.4,   15.8,   38.6,   28.2,   21.2,   23.1,   31.3,   31.3,   42.0,   31.4,   42.2,   41.6,   41.1,   32.2
2000/12/12 10:30,  999.0,    1.8,    5.0,    4.1,    4.1,    2.8,    5.6,    6.0,    5.2,    4.4,    5.4,    4.7,    5.5,   11.8,   10.9,   21.8,   23.2,   33.1,  999.0,   26.4,   32.3,   35.6,   33.9,   31.0,   32.4,   36.1,   37.2,   41.6,   38.3,   35.2,   39.7,   39.6,   40.8,   41.2,   41.2,   41.9,   41.9,   42.1,   42.1,   42.1,  999.0,   41.9,   42.0,   41.9,   42.0,   42.2,   41.8,   42.0,   41.9,   41.9,   41.9,   41.9,   27.6,   20.6,   41.9,   42.1,   41.8,   34.9
2000/12/12 10:40,  999.0,    1.0,    2.7,    2.5,    0.9,    4.7,    4.1,    3.5,    5.0,    6.1,    4.6,    6.3,   10.3,   11.1,   14.3,    6.2,   25.6,   25.4,   25.5,   30.0,   31.3,   33.4,   35.8,   36.5,   30.6,   40.6,   38.2,   41.8,   42.0,   42.2,   41.7,   41.6,   19.8,   12.4,   41.2,  -15.6,   25.3,    7.3,   41.7,   41.5,   14.1,    5.1,   17.4,   19.8,   22.1,    6.9,   41.6,   41.5,   41.6,    8.5,   41.9,   20.9,   41.3,   41.9,    0.7,   41.7,   17.7,   -0.1
2000/12/12 10:50,  999.0,    1.7,    2.2,    2.0,    2.6,    2.1,    2.6,    3.3,    4.6,    3.3,    8.0,   13.3,    1.4,  999.0,   21.2,   22.8,   23.5,   25.3,   24.1,   29.6,   32.1,   30.8,   36.7,   35.3,   38.2,   39.9,   41.9,   42.0,   32.4,  999.0,   41.6,   41.0,   41.7,   41.6,   41.9,   42.6,  999.0,   41.6,   42.4,   35.8,   41.6,   41.7,   41.6,   41.9,  999.0,   42.3,   41.8,   41.9,   41.5,   41.9,   42.2,   42.2,   41.9,  999.0,   42.5,  999.0,   41.9,   41.5
2000/12/12 11:00,  999.0,    1.6,    1.9,    3.6,    3.4,    2.9,    3.2,    2.2,    2.8,    3.4,    3.5,    2.5,    0.6,   12.5,   16.9,   14.6,   20.7,  999.0,   29.3,   30.9,   32.0,   33.1,   39.7,   35.8,   37.0,   37.3,   33.5,   37.0,   37.4,   39.4,   39.1,   39.5,   40.1,   40.4,   41.2,   41.8,   42.1,   42.1,   42.0,   42.0,   41.7,   42.3,   41.8,   42.3,   42.0,   41.7,   42.0,   42.2,   41.9,   41.7,   42.0,   42.4,   42.0,   41.9,   42.0,   41.9,   41.6,   42.3
2000/12/12 11:10,  999.0,    4.5,    1.0,    6.0,    5.1,    2.2,    9.2,   14.0,   11.8,   11.9,   13.4,   18.6,   15.9,    0.1,   18.8,   16.1,   15.8,   23.0,   26.8,   31.0,   33.1,   41.3,   32.1,   32.4,   41.7,   32.8,   36.7,   41.4,   41.8,   41.7,   37.3,   41.7,   39.5,   39.9,   39.8,   41.5,   41.7,  999.0,   41.7,   42.0,   41.5,   41.5,   42.2,   41.3,   42.0,   41.9,   41.8,   41.8,   41.5,   41.9,  999.0,   41.9,   42.0,   41.7,   41.9,   41.9,   42.2,   42.0
2000/12/12 11:20,  999.0,    4.2,   10.4,   10.3,    9.1,    9.4,    9.7,    9.0,    3.1,    4.1,   10.7,   -0.5,   10.0,    5.9,   10.4,   12.7,    9.3,    2.4,   10.3,    3.3,   10.2,   13.3,  999.0,   16.8,   22.6,   26.0,  999.0,   33.4,  999.0,  999.0,   37.1,   39.9,   39.3,   40.2,   41.2,   42.0,   42.1,   42.4,   42.1,   42.4,   41.7,   42.0,   42.7,   21.1,   -0.8,   20.6,   20.5,   21.1,   20.6,   20.6,   41.8,   -0.7,   20.4,   41.9,   27.9,   41.5,   42.2,   42.0
2000/12/12 11:30,  999.0,    2.0,    3.0,    4.1,    3.8,    3.8,    2.6,    2.8,    3.1,    3.3,    3.9,    3.6,    4.0,    2.9,    3.8,    4.9,    4.5,    4.8,    4.7,    6.7,    5.4,    6.6,    9.3,    9.0,    8.6,    8.6,    8.9,   10.1,   10.2,   12.5,    8.3,   16.9,   18.8,   23.0,   25.5,   31.5,   41.3,  999.0,   38.3,  999.0,   39.5,   42.5,  999.0,  999.0,   42.0,   42.1,   42.0,   42.1,  999.0,   41.2,   41.8,   41.8,   42.1,   42.5,   42.3,   41.9,   41.9,   42.0
2000/12/12 11:40,  999.0,    1.6,    1.7,    2.0,    2.7,    2.2,    1.9,    2.5,    2.8,    2.9,    2.8,    2.4,    2.6,    2.4,    3.0,    2.8,    2.8,    2.5,    3.3,    3.8,    4.3,    6.3,    3.1,    4.3,    5.6,  999.0,    7.8,    3.2,    8.3,  999.0,   16.7,  999.0,    1.0,    1.3,   14.2,    5.6,  999.0,    8.1,   17.3,   21.3,   21.1,   21.2,   28.1,   21.4,    2.6,   24.8,   29.9,   31.7,   31.7,   27.9,   31.5,   20.9,   22.1,   27.9,   28.2,   34.4,   23.4,   30.6
2000/12/12 11:50,  999.0,    0.5,    2.7,    1.9,    3.1,    3.6,    4.1,    4.0,    3.8,    3.7,    3.5,    3.4,    2.4,    2.8,    3.9,    4.4,    4.2,    5.4,    5.7,    6.7,  999.0,  999.0,  999.0,   10.7,  999.0,  999.0,  999.0,  999.0,  999.0,  999.0,  999.0,  999.0,   31.5,   34.0,  999.0,   39.1,   41.3,   41.4,   42.0,   42.2,   42.0,   41.9,   42.2,   41.2,   42.2,   42.2,   41.7,   41.8,   42.0,   42.1,   41.6,   42.5,   42.2,   42.2,   42.0,   42.0,   42.1,   41.9
2000/12/12 12:00,  999.0,   -0.3,   -0.7,   -0.1,    1.3,    1.9,    2.0,    2.5,    2.7,    2.7,    3.0,    3.8,    0.9,    0.6,    0.8,    3.6,  999.0,  999.0,    1.0,  999.0,  999.0,  999.0,  -12.6,  999.0,    0.6,    1.0,    0.6,    0.6,    0.8,    0.9,    0.5,  999.0,    0.4,    0.5,    1.1,   15.0,   37.0,   15.2,   25.5,   42.0,   30.9,   26.6,   41.6,   36.2,   42.4,  999.0,   41.7,   41.5,   42.5,   42.1,   32.0,   22.0,   32.1,   31.2,   21.4,   21.4,   21.7,   36.6
2000/12/12 12:10,  999.0,    1.4,    2.9,    2.7,    0.8,    0.8,    0.3,    1.7,    2.4,    2.5,    8.7,   11.7,   11.0,    1.3,   17.5,   11.4,   14.6,   11.2,    8.2,    2.7,    1.7,    0.5,    0.7,    0.9,    0.6,    0.2,    0.7,    0.8,    0.4,    0.4,    0.6,    0.7,    1.0,    0.8,    0.8,    0.6,    0.9,    0.6,  999.0,    0.4,  999.0,  999.0,  -41.9,  -42.1,  999.0,  -41.7,  -41.9,  -41.2,  -41.9,  -41.6,  -42.1,  -41.7,  -41.6,  -41.9,  -42.0,  -41.5,  -41.8,  -41.6
2000/12/12 12:20,  999.0,    2.1,    1.1,    1.1,    4.1,    5.0,    4.3,    4.0,    1.9,    1.8,    1.6,    2.3,    2.9,    1.1,    8.6,   13.3,   14.9,    8.2,  999.0,    4.0,    1.5,    0.5,    0.6,   14.4,   41.9,   14.5,   14.6,   21.3,   21.0,   14.5,    0.6,   14.6,   16.0,   17.6,    8.0,   30.7,   42.1,   10.0,   21.2,    4.2,  999.0,   -0.4,   -0.5,  999.0,   -1.5,   -0.5,   -0.5,   -0.5,    0.5,  999.0,   -0.8,  999.0,  999.0,  999.0,  999.0,   -1.0,  999.0,  999.0
2000/12/12 12:30,  999.0,    0.8,    2.3,    0.2,   -0.3,    2.7,    2.7,    2.1,    1.9,    2.9,    3.0,    3.8,    6.1,    6.0,   12.2,   16.5,   18.2,  999.0,  999.0,  999.0,  999.0,   42.1,   41.6,   41.1,   42.2,   41.9,   41.4,   41.4,   21.6,   42.0,   40.1,   33.0,  999.0,   42.4,   36.8,   24.4,   32.9,   38.1,   35.8,   21.6,   42.0,   42.3,   41.6,   20.6,   20.5,   20.7,   42.2,   20.5,   20.8,   42.6,   -0.7,   10.2,   20.7,   27.5,   13.5,   20.6,   20.6,   20.8
2000/12/12 12:40,  999.0,    2.2,    1.8,    2.2,    2.5,    2.6,    2.4,    2.9,    3.2,    2.9,    6.0,    8.1,    7.1,    9.2,   13.5,   12.9,   14.4,   22.8,   14.8,  999.0,  999.0,   23.9,   17.0,   13.9,   19.3,  999.0,   16.1,   16.5,   16.3,    7.8,   25.5,   29.2,   37.6,   37.1,   27.8,   32.1,   42.0,   41.9,   41.5,   41.7,   42.7,  999.0,   42.2,   42.1,   42.4,   41.8,   42.0,   42.7,   20.7,   20.7,   42.2,   20.2,   16.9,  999.0,   10.8,  999.0,  -21.2,  999.0
2000/12/12 12:50,  999.0,    1.1,    1.9,    2.4,    2.2,    2.1,    2.4,    2.5,    2.8,    2.8,    2.7,    2.7,    1.9,    5.2,   -3.3,   13.4,   17.4,   25.4,  999.0,  999.0,  999.0,  999.0,  999.0,  999.0,   41.9,   10.1,   21.0,   -0.8,   20.0,   41.6,   31.4,   31.2,   31.0,   20.5,   31.5,   20.8,   20.2,  999.0,   27.7,   20.7,  999.0,    9.6,   26.4,   -0.6,   20.5,   -0.7,    3.2,   20.8,   41.7,  -10.7,   -1.0,   -2.0,  -14.1,  -29.5,  999.0,   -0.3,    2.5,   -1.2
2000/12/12 13:00,  999.0,    0.0,    2.5,    2.5,    3.2,    2.3,    2.2,    2.8,    3.1,    2.9,    3.4,    5.3,   17.9,  999.0,  999.0,   32.8,   35.5,   37.7,  999.0,   41.6,   41.8,   41.3,   41.8,   42.2,   41.8,   41.3,   41.8,   42.1,   41.8,   41.9,   41.8,   41.5,   42.0,   41.9,   41.5,   41.8,   41.5,   41.7,   41.7,   41.5,   38.2,   35.7,  999.0,   21.3,    0.6,    1.4,   31.7,  999.0,   12.3,   19.8,  999.0,  999.0,  999.0,  -18.5,  -20.7,    0.5,  -20.8,  -20.4
2000/12/12 13:10,  999.0,    0.6,    2.2,    1.4,    1.1,    0.4,    1.2,    1.2,    1.1,  999.0,    1.7,  999.0,  999.0,   32.0,   28.6,   32.1,   38.0,   34.7,   36.1,   37.0,   37.6,   37.7,   41.6,   38.2,   38.4,   41.6,   41.8,   38.3,   41.1,   37.0,   40.0,   41.4,   41.1,   41.6,   41.5,   41.8,   41.5,   41.9,   41.7,   41.8,   41.4,  999.0,  999.0,  999.0,  999.0,  999.0,  999.0,  999.0,   41.5,  999.0,   41.8,  999.0,   41.4,  999.0,  -31.7,  -35.4,  999.0,  -41.5
2000/12/12 13:20,  999.0,    0.9,    0.3,    1.1,    0.7,    1.4,    2.8,    1.8,    2.2,    8.8,    0.4,    0.7,    9.6,   17.1,   34.3,   20.6,   39.7,   41.9,   -7.4,   10.3,   11.5,   12.2,   -1.7,  999.0,   42.0,   15.2,   14.7,   15.6,   16.8,   16.0,   41.9,  999.0,   41.5,   42.2,   42.5,    1.0,   21.1,   41.8,   21.7,   21.1,    1.1,    0.5,    0.4,    0.4,    0.5,  -20.3,  -20.6,  -20.2,  999.0,  -41.9,  -20.5,    0.5,  -42.3,  999.0,  -20.5,  -20.3,  999.0,  -20.2
2000/12/12 13:30,  999.0,    2.8,    1.5,    0.8,    2.5,    1.6,    1.3,    1.7,    1.5,    1.5,    1.2,    0.4,    0.8,    3.8,    3.1,    4.2,  999.0,    4.7,   -0.8,   -1.1,  -10.4,    5.6,    8.2,    8.0,    0.6,   -0.1,   -1.2,  999.0,   -9.8,  999.0,    0.8,    1.0,  999.0,    0.6,    0.4,    0.9,    0.8,    1.0,    0.9,    1.0,    0.7,    0.9,    1.0,    0.6,    0.9,    0.6,    0.3,    2.6,    7.0,    6.8,    2.2,    0.3,    0.4,    0.9,    0.6,    0.8,    0.7,    0.9
2000/12/12 13:40,  999.0,    1.9,   -0.5,    1.4,   -0.8,    1.0,    2.3,    2.5,    1.7,    1.5,    1.2,    1.6,    1.5,    1.8,    1.1,    1.6,    3.4,    4.4,    5.3,  999.0,    6.9,    9.6,    7.1,    7.0,    4.8,    1.6,   -0.5,  999.0,  999.0,  999.0,  999.0,  999.0,    2.9,  -13.6,   -6.8,    0.9,    0.5,    0.5,    0.9,    0.6,    0.5,    0.7,    0.8,    0.7,    0.6,    0.6,    1.5,    1.0,    0.8,    0.5,    0.9,    0.8,  999.0,    0.8,    0.8,    0.3,    0.4,    0.7
2000/12/12 13:50,  999.0,    0.5,    1.7,    2.9,    2.6,    3.4,    2.2,    1.4,    1.5,    1.7,    2.0,    2.1,    2.8,    1.6,    1.7,    1.9,    4.5,    3.4,    8.3,   12.5,    9.2,    8.3,    8.8,    5.8,    9.7,   14.1,   16.8,   11.6,   14.1,    3.8,   11.4,  999.0,    0.6,    0.5,    1.4,   42.0,    0.7,   26.3,  999.0,   35.9,   30.7,   31.9,   36.6,   -6.2,   31.4,   -2.6,   10.1,   -6.8,   42.4,  -21.2,  -21.2,   20.3,   18.0,   21.8,  -36.3,    0.1,    0.6,  -10.9
2000/12/12 14:00,  999.0,    4.0,    1.0,    0.8,    4.9,    3.2,    2.1,    0.9,    2.3,    3.5,    3.2,    2.4,    1.1,   -0.4,   -0.4,    1.8,    0.6,    0.9,   -1.2,    1.5,   -3.3,    2.9,    2.9,    7.9,   16.0,    7.7,  999.0,    5.1,   18.4,   18.4,    7.7,   -8.3,    9.3,   18.0,  999.0,  -14.9,  -13.3,    7.7,   17.3,   12.9,    2.7,    2.4,    4.2,    6.0,    8.1,    4.2,    5.3,    0.4,    0.2,    1.4,   -0.5,   -0.8,   41.9,    6.6,    9.4,   13.4,   -0.6,    6.4
2000/12/12 14:10,  999.0,    2.2,    1.1,    2.1,    6.3,    6.3,    2.3,    2.4,    1.5,    2.7,    1.9,    1.6,    3.3,    5.7,    7.4,    6.9,    2.7,    2.5,    6.2,    9.0,    8.4,    3.0,    3.5,    4.6,    5.4,   -0.7,    0.4,   -6.6,  -14.4,   -6.2,  -10.4,  999.0,    5.5,    1.6,    0.4,    7.8,   12.4,    6.3,   -0.8,    0.6,   19.9,    1.4,  -30.4,  999.0,    0.0,   -0.7,   -0.3,  999.0,   -0.9,    3.2,  999.0,   -0.6,   -0.7,   -1.6,   -1.4,   -0.6,   -0.4,   -0.8
2000/12/12 14:20,  999.0,    7.3,    8.2,    7.8,    7.6,    7.3,    5.2,    4.6,    4.4,    6.5,    6.8,    4.8,    9.1,    7.2,    5.2,    3.0,    0.9,    2.7,    5.0,    4.2,    8.2,   20.2,   18.8,    6.9,   13.0,   12.4,    7.6,   11.4,   10.5,   11.4,   11.1,   15.1,   13.2,   16.0,   18.8,   28.9,   19.8,   19.3,   13.9,   21.4,   23.2,   19.8,  999.0,   36.9,   15.9,   11.3,   41.0,   20.6,   41.8,   -0.7,   -0.5,   20.5,   -1.4,   -0.5,   -0.6,   -0.9,    9.5,   -0.4
2000/12/12 14:30,  999.0,    3.0,    3.8,    5.9,    6.6,    6.0,    4.9,    4.1,    4.3,    3.9,    3.1,    3.0,    2.6,    2.0,    7.9,    5.5,    6.5,    7.0,    6.8,    3.3,    7.1,    3.0,    7.4,    9.6,    9.4,   10.0,  999.0,  999.0,  999.0,  999.0,   24.9,   35.9,   25.4,   36.2,   10.3,   15.6,   16.2,   22.4,    1.0,   21.4,   21.6,    0.6,    0.7,    0.9,    0.9,    0.3,   -0.8,   -0.3,   -0.1,   -0.9,   -0.6,    0.1,   -0.4,   -0.3,    0.8,    0.2,   -0.3,   -0.4
2000/12/12 14:40,  999.0,    2.4,    2.8,    4.6,    3.4,    1.4,    0.9,    1.2,    1.6,    2.1,    1.9,    1.6,    2.4,    3.1,    3.9,    6.3,    5.3,    6.3,    6.6,    6.9,    8.1,    9.2,    5.1,    6.1,  999.0,   11.1,  999.0,  999.0,  999.0,    2.8,    5.5,    2.3,    2.9,    2.9,    1.5,    0.6,    0.6,    0.8,    0.7,    0.5,    0.9,    7.4,   22.9,    3.9,    1.0,    0.7,    5.2,    0.6,    2.2,    0.9,    7.8,    8.3,    5.1,    7.5,    6.7,   14.7,   13.3,    0.8
2000/12/12 14:50,  999.0,    4.0,    3.6,    4.4,    3.9,    2.5,    2.0,   -2.9,   -1.7,   -0.3,   -0.8,   -1.6,   -2.4,   -2.9,   -0.5,   -4.4,    0.2,    0.5,    6.9,   -3.4,    7.3,  999.0,    6.7,  999.0,  999.0,   16.0,  999.0,   11.4,   10.3,  999.0,    6.3,   -0.1,   -0.4,    1.0,    0.9,    0.6,    0.9,    0.3,    0.9,    0.9,  999.0,    0.9,    1.0,    0.3,    1.0,    0.5,    0.8,    0.9,    0.1,   -0.2,    0.7,    0.4,    1.2,    0.6,    0.2,    0.3,    0.1,    0.8
2000/12/12 15:00,   22.5,    6.1,    3.1,    0.8,   -1.1,    0.0,    1.4,    2.5,    3.6,    4.7,    6.8,    7.6,    6.4,    6.8,   10.8,   10.8,   10.8,    9.9,    8.2,    8.0,    8.1,    9.5,   42.7,  999.0,   42.3,    0.8,   10.9,    3.7,    6.1,    3.0,    3.6,    0.8,  999.0,    7.5,    0.8,    0.6,    0.8,    0.6,    4.9,    0.9,    0.6,   42.1,    8.0,    0.6,    0.8,    9.9,    0.9,   14.0,   -0.2,    0.6,   10.7,    7.9,    7.5,    8.1,    0.6,    0.4,    1.5,   -8.6
2000/12/12 15:10,  999.0,   -1.8,   -6.1,   -4.9,   -6.1,   -8.3,   -4.4,   -4.7,   -5.2,   -3.9,   -0.5,   -2.8,    0.7,    1.1,   -1.5,    5.9,    6.6,    7.4,    8.0,   13.4,   20.5,  999.0,   23.4,   35.6,   27.7,   21.3,    0.4,  999.0,   14.4,   14.8,   14.3,   12.7,   10.8,   37.1,   13.0,  999.0,    0.8,    0.7,    0.5,   21.8,    0.8,    1.2,   -2.2,   -4.9,   -3.0,    0.8,    0.6,  -20.2,  -26.1,  -33.8,  -20.6,  -13.1,  -20.4,  -20.2,    0.6,  -10.3,    0.6,  -41.6
2000/12/12 15:20,   13.4,   11.5,    6.9,    4.7,    2.9,    1.9,    1.7,    2.1,    3.4,    3.6,    3.7,    4.5,    5.5,    6.7,    7.1,    7.4,    8.1,    6.5,    7.6,  999.0,   11.5,  999.0,  999.0,   12.0,    7.2,    3.7,    3.9,    2.5,    1.4,    0.7,    0.6,    0.4,    0.5,    0.7,    0.6,    0.7,    0.9,    0.7,    0.8,    0.7,    0.5,    0.8,    0.7,    0.8,    0.9,    0.5,    1.2,    0.9,    0.9,    0.7,    0.7,    0.7,    1.3,    0.9,    0.7,    0.6,    0.6,    0.8
2000/12/12 15:30,   14.7,    5.8,    3.3,    1.5,    2.6,    1.5,    2.5,    2.3,    3.3,    4.7,    4.1,    4.2,    5.5,    5.4,    6.1,    6.9,    7.8,    8.2,    7.9,    8.4,  999.0,  999.0,  999.0,    6.4,    3.6,    0.6,  999.0,    0.9,    1.0,    0.8,    0.9,    0.6,    0.7,    0.9,    0.3,    1.0,    0.9,    0.8,    0.5,    0.6,    0.9,    0.6,    0.6,    0.6,    0.4,    0.4,    1.0,    0.8,    0.9,    0.8,    1.1,    0.8,    0.6,    0.7,    0.4,    0.5,    0.3,    0.7
2000/12/12 15:40,   13.1,    8.0,    1.1,    2.0,    1.7,    1.2,    0.5,    1.4,    4.2,    4.8,    4.3,    5.1,    4.0,    3.2,    3.2,    3.6,    4.5,   -0.9,   -3.7,  999.0,  999.0,   -5.4,   -8.4,  -12.5,  -14.4,   -6.8,   -6.0,    0.3,    0.5,    0.8,    0.2,    0.9,    0.7,    0.6,    0.7,    1.2,    0.7,    0.9,   12.3,    0.9,   11.2,    7.3,   -0.1,   11.8,   18.4,   -4.4,    0.8,  -20.6,    1.0,    0.6,    0.7,    0.9,    0.4,    4.5,   -1.8,    7.7,   -6.3,   -6.4
2000/12/12 15:50,   13.0,   11.0,    9.7,    6.8,    5.1,    2.6,    2.3,    3.3,    3.2,    3.8,    0.1,  999.0,    4.1,    4.8,    5.7,    6.4,    7.2,    8.6,    9.5,    9.7,   11.6,    4.4,   -5.7,   -7.7,  999.0,  999.0,   14.1,    1.2,    0.8,    0.4,    0.6,    0.9,    6.4,    3.3,    0.8,   18.3,   14.4,   14.7,    6.0,    2.8,   16.6,    7.5,    4.3,    0.8,   17.4,    7.8,   14.3,    0.5,    0.7,    0.6,    0.9,    0.9,    0.6,    1.0,    1.0,    0.9,    1.0,    1.0
2000/12/12 16:00,   16.3,    7.6,    3.5,    3.8,    1.7,    1.8,    0.7,    1.3,   11.4,   26.7,  999.0,    2.7,   13.6,   17.3,    5.1,  999.0,    5.5,    7.4,    7.9,   29.4,    9.0,   12.3,   10.2,   26.9,   24.7,  999.0,   22.2,   12.3,  -16.6,   -2.7,   -1.7,    0.2,    0.8,   21.4,  -17.9,   -4.0,    2.7,    0.8,    2.7,   13.1,    0.2,   18.0,   13.9,    0.6,    0.5,    0.4,    7.8,    0.7,    6.4,   21.2,   14.5,   21.4,   14.0,    0.2,    0.9,    0.9,    7.5,    1.0
2000/12/12 16:10,  999.0,    1.3,    1.4,    2.7,   -0.1,   -0.3,    0.5,    1.7,    6.5,  999.0,  999.0,    5.5,    8.1,   -3.6,  999.0,   17.4,    2.1,    5.1,   10.4,    9.2,  999.0,    9.5,    9.3,    0.3,   23.0,   23.3,    9.0,   32.9,   27.5,   33.7,   36.8,   36.0,   37.4,   41.6,   41.5,   42.0,   41.4,   41.6,   41.6,   41.8,   31.4,   35.0,   41.6,   41.9,   41.8,   41.8,   40.7,  999.0,   41.5,   24.8,   30.6,   28.5,   10.6,    5.4,  999.0,  999.0,    0.6,  999.0
2000/12/12 16:20,  999.0,    2.2,    0.9,    1.2,    0.6,    1.8,    2.1,    3.9,    3.6,    4.6,  999.0,    5.4,    9.1,  999.0,  999.0,   25.4,    6.1,    7.1,   41.1,  999.0,   32.6,   36.2,   38.6,    6.1,   23.2,   34.9,    9.7,   37.0,   11.1,   11.6,   26.1,  999.0,   19.9,   20.7,   30.6,    8.8,   41.7,   32.1,   25.8,   41.6,   34.7,   15.3,   15.8,   23.7,    2.1,   19.0,   30.3,    7.2,   16.3,   15.9,   23.6,   20.6,   41.7,   -0.9,   34.9,   31.3,   -0.7,   27.7
2000/12/12 16:30,   18.7,    9.0,    6.6,    3.6,    2.7,    3.1,    3.0,    3.6,    4.1,    4.1,    3.9,    3.8,    3.9,  999.0,    5.2,    5.5,    6.2,    5.7,  999.0,  999.0,  999.0,  999.0,  999.0,   21.7,   22.9,   21.2,   36.1,   31.9,   26.6,   24.9,   29.4,   31.6,   33.2,   40.4,   33.8,   37.8,   38.4,   41.2,   41.8,   41.5,   41.5,   42.0,   42.0,   41.8,   41.5,   41.6,   40.0,   36.9,   40.2,   36.3,   31.8,   28.6,   29.2,   29.1,   41.4,   41.4,   41.5,   35.1
2000/12/12 16:40,   20.8,   14.0,   10.7,    6.8,    3.3,    1.7,    2.9,    4.0,    2.9,    5.3,    2.9,  999.0,   20.3,  999.0,   20.8,   20.9,   21.5,  999.0,   25.7,  999.0,  999.0,  999.0,  999.0,   29.8,   27.7,   27.8,   21.4,    6.3,   28.0,  999.0,   28.5,   21.3,   20.9,   28.3,   28.1,   28.3,   31.8,   24.9,   20.6,   21.3,  999.0,   31.1,   41.4,   41.7,   36.5,   28.8,   37.0,   29.8,   33.6,   41.5,   41.7,   38.5,   29.8,   41.0,   34.4,    0.7,   20.9,   41.0
2000/12/12 16:50,   20.7,   18.5,   14.1,   10.0,    6.6,  999.0,  999.0,  999.0,  999.0,   21.3,   21.3,   20.6,  999.0,   21.4,   21.9,   22.9,   23.1,   26.8,   29.8,   29.8,   34.3,   35.3,   36.9,   38.7,   39.8,  999.0,   41.4,   41.8,   42.1,   41.4,   41.8,   41.9,   42.1,   41.9,   42.0,   42.2,   41.6,   41.9,   42.2,   42.1,   42.3,   41.9,   42.1,   41.8,   41.9,   42.2,   41.7,  999.0,   42.3,   41.6,   41.3,   41.5,   41.4,   42.1,   42.1,   42.5,   42.1,   42.2
2000/12/12 17:00,   33.9,   22.9,   26.0,   23.5,   21.5,   21.7,   20.4,   21.3,   21.7,   21.6,   21.3,   21.3,   21.2,   21.2,   20.9,   21.3,   22.2,   22.9,   26.1,   27.4,   29.6,   30.8,   34.2,   36.2,   39.6,   40.7,   40.6,   41.4,   41.7,   41.7,   41.7,   41.6,  999.0,   41.7,   41.5,   41.7,   41.8,   41.9,   41.6,   41.7,   41.9,   42.0,   41.9,   41.8,   41.4,   42.1,   41.9,   41.7,   41.7,   41.8,   41.5,   41.4,   41.5,   42.0,   41.6,   41.9,   41.7,   41.4
2000/12/12 17:10,   42.0,   19.9,   13.0,   16.4,   12.3,   18.4,   18.2,   15.4,   21.3,   15.6,   18.4,   16.9,   12.9,   18.3,   16.1,   16.7,   22.8,   24.4,   25.9,   30.4,   28.0,   26.9,   37.2,   39.6,   34.4,   35.2,   41.8,   42.2,   41.6,   31.5,   42.3,   40.1,   33.5,   42.0,   40.2,   41.9,   41.9,   41.9,   42.1,   41.8,   38.3,   34.9,   35.9,   36.0,   42.2,   38.8,   41.7,   41.7,   42.1,   42.0,   42.2,   41.7,   41.9,   36.9,   41.9,   42.4,  999.0,   40.9
2000/12/12 17:20,   12.7,    6.4,    1.8,    2.9,    6.7,    4.3,    4.8,    7.3,    6.7,    0.0,    2.1,    6.5,    0.5,    6.2,    5.0,  999.0,  999.0,   23.4,   12.2,   14.0,   17.5,   22.2,  999.0,   28.9,   34.9,   34.6,  999.0,   26.8,   41.8,  999.0,   23.7,   31.6,   23.3,   17.7,    9.8,   38.9,   42.0,   35.0,  999.0,   20.9,   21.1,   -0.2,   41.7,   21.1,   41.6,   -1.3,   -4.7,  -41.8,   26.8,   38.6,  -41.3,   20.4,  -13.4,  -13.6,  999.0,  999.0,    5.1,   40.9
2000/12/12 17:30,  999.0,   10.4,    5.7,    4.5,    3.3,    4.4,    4.1,    4.1,    4.4,    4.8,    4.3,    3.9,    4.9,    5.0,  999.0,    5.6,    5.8,  999.0,  999.0,    5.2,   13.1,    8.6,    7.1,    7.2,    6.4,    1.0,    1.2,    4.6,    7.2,    6.2,    5.9,    4.9,    3.6,  999.0,    5.8,    1.9,    2.1,  999.0,    1.3,    0.9,    0.5,    0.8,    0.8,    0.9,    0.8,    0.7,    0.7,    1.1,    0.9,    0.8,    0.7,    0.8,    0.6,    0.7,    0.8,    1.9,    1.0,    0.8
2000/12/12 17:40,   19.5,    2.2,    0.9,    5.2,    5.6,    5.2,    3.8,    3.8,    4.1,    4.1,    3.9,    4.6,    4.3,  999.0,  999.0,    5.9,    5.9,    5.4,  999.0,    0.3,   -1.3,  999.0,  999.0,  999.0,    5.7,    8.0,    3.1,    2.0,  999.0,  999.0,    1.2,    1.0,    6.4,    0.3,    0.6,    5.3,    1.0,    1.0,    0.3,    0.6,    0.5,    0.4,    0.6,    0.6,    0.7,    0.7,    0.7,    3.9,    9.4,   12.9,    7.2,   13.8,    3.1,    0.7,    0.8,    7.2,    0.9,    0.9
2000/12/12 17:50,   26.6,    4.7,    2.7,    6.7,    4.2,    2.5,    2.4,    2.7,    3.6,    3.8,    4.2,  999.0,    4.4,    4.8,    5.8,    5.9,    4.0,    3.0,    1.7,  999.0,    2.1,  999.0,  999.0,  999.0,  999.0,  999.0,  999.0,  999.0,  999.0,    0.6,  999.0,    0.8,    0.8,    8.5,    5.0,    2.1,    0.6,    0.2,    0.5,    0.7,    0.5,    0.8,    0.7,    0.8,    0.5,    0.6,    0.6,    0.6,    0.4,    0.7,  999.0,    1.2,    1.2,    0.3,    1.2,    0.5,    0.6,    0.6
2000/12/12 18:00,   38.9,  999.0,  999.0,    2.5,  999.0,    0.7,    1.0,    2.6,    3.5,    3.0,    2.2,    0.4,    3.3,    4.1,    4.6,    4.4,    5.0,  999.0,    3.3,  999.0,  999.0,  999.0,  999.0,  999.0,  999.0,  999.0,  999.0,    1.2,    1.5,    1.0,    0.5,    0.5,    0.9,    0.5,    0.5,  999.0,    0.3,    1.0,    0.5,    0.8,    0.6,    1.2,    0.6,    0.8,    0.6,  999.0,    0.9,    0.7,    1.4,    1.8,    0.8,    0.8,    1.0,  999.0,    1.1,    0.3,    0.9,    0.8
2000/12/12 18:10,  999.0,    7.1,    0.2,    3.2,    3.9,    2.6,    3.0,    3.9,    3.4,    2.5,    3.3,    3.4,    3.8,    4.6,    5.3,    4.9,    2.9,    0.0,    0.2,    0.1,   -0.5,   -0.3,    5.3,    1.6,   -0.6,    5.4,    8.2,    8.4,   -6.3,    5.0,    3.2,    6.7,    1.9,    3.8,    6.5,    3.3,    5.1,    5.0,    5.7,    7.4,    3.9,    4.0,    3.3,    2.6,    6.3,    3.2,    2.7,    2.1,    2.3,   -0.8,    0.9,    4.0,  999.0,    6.2,    0.6,    1.0,    0.8,    0.5
2000/12/12 18:20,  999.0,    2.5,    3.2,    3.1,    8.0,    3.5,    6.9,    6.8,    6.1,    5.1,    4.5,    4.7,    4.8,    5.1,    5.6,    5.8,    5.9,    6.3,    7.1,    7.7,    7.9,    7.6,    7.1,    6.2,    5.4,    6.8,    8.0,    9.2,    9.4,    6.2,    5.1,    4.8,    5.1,    5.9,    5.6,    6.6,    6.9,    6.5,    6.6,    7.4,    6.3,    7.5,    8.5,    8.1,    7.9,    6.9,    6.7,    6.3,    6.7,    6.5,    6.6,    5.9,    5.3,    5.0,    4.6,   11.1,  999.0,  999.0
2000/12/12 18:30,  999.0,    6.7,    0.9,   -0.3,    1.7,    3.3,    4.8,    5.7,    5.6,    4.8,    3.7,    3.7,    4.5,    5.1,    6.0,    6.4,    6.7,    7.4,    8.1,    8.3,    8.7,    9.1,    9.1,    9.5,    8.7,    8.0,    7.6,    8.7,    9.1,    9.6,    9.1,    9.0,    8.8,    5.3,    7.9,    8.4,    5.2,    5.8,    4.7,    7.2,    6.2,    8.0,    3.3,    3.9,    1.5,    4.7,    3.2,    3.7,    1.3,   -0.3,   -0.9,  999.0,  999.0,  999.0,   -0.1,   -0.7,   -1.1,  999.0
2000/12/12 18:40,  999.0,  999.0,  999.0,   -6.3,    0.6,    1.5,    3.2,    0.1,    3.0,    5.1,    4.4,    3.7,    3.2,    4.4,    5.1,    5.2,    4.6,    5.4,    5.0,    6.4,    7.0,    8.0,    9.1,   11.2,   11.8,   13.5,   15.7,   16.4,  999.0,   15.8,  999.0,   20.1,   19.6,  999.0,  999.0,  999.0,  999.0,  999.0,  999.0,  999.0,  999.0,  999.0,  999.0,  999.0,  999.0,  999.0,  999.0,  999.0,  999.0,  999.0,  999.0,  999.0,  999.0,  999.0,  999.0,  999.0,  999.0,  999.0
2000/12/12 18:50,  999.0,  999.0,   13.1,    4.9,  999.0,   -0.2,    0.7,   -1.0,   -1.6,    4.0,    5.0,    3.3,    3.6,    4.7,    4.9,    5.2,    5.5,    5.1,  999.0,  999.0,  999.0,  999.0,  999.0,  999.0,  999.0,  999.0,  999.0,   12.4,  999.0,  999.0,  999.0,  999.0,  999.0,   21.7,  999.0,  999.0,  999.0,  999.0,  999.0,  999.0,  999.0,  999.0,  999.0,  999.0,  999.0,  999.0,  999.0,  999.0,  999.0,  999.0,  999.0,  999.0,  999.0,  999.0,  999.0,  999.0,  999.0,  999.0
2000/12/12 19:00,   18.3,   14.0,    9.3,   10.0,    8.2,    2.5,    1.2,   -0.5,    0.5,    3.5,    3.1,    4.4,    5.6,    4.6,    5.1,    4.5,    6.0,    6.5,    7.0,    6.7,  999.0,  999.0,   24.2,   24.9,  999.0,  999.0,   27.4,  999.0,   29.1,  999.0,   30.9,  999.0,  999.0,  999.0,  999.0,  999.0,  999.0,  999.0,  999.0,   39.1,  999.0,  999.0,  999.0,   41.8,  999.0,  999.0,   41.6,  999.0,  999.0,   27.6,  999.0,  999.0,  999.0,  999.0,  999.0,  999.0,  999.0,  999.0
2000/12/12 19:10,   12.7,    9.4,    4.2,  999.0,    1.3,    3.1,    2.9,    2.3,    3.5,    3.8,    3.0,    2.9,    2.7,    3.7,    3.8,    3.5,    2.5,    3.4,    9.5,    9.3,   15.2,   13.6,   14.9,  999.0,  999.0,  999.0,  999.0,   10.3,  999.0,  999.0,  999.0,  999.0,  999.0,  999.0,  999.0,  999.0,  999.0,  999.0,  999.0,  999.0,  999.0,  999.0,  999.0,  999.0,  999.0,  999.0,  999.0,  999.0,  999.0,  999.0,  999.0,  999.0,  999.0,  999.0,  999.0,  999.0,  999.0,  999.0
2000/12/12 19:20,  999.0,    3.6,   -1.4,    1.7,    0.9,    4.2,    0.9,    0.9,   -0.1,    1.7,   -0.2,    0.1,   -0.7,   -1.9,   -2.5,   -2.3,    1.0,   -0.0,    1.6,    2.8,    3.1,    2.7,   -1.1,    1.7,    2.0,    0.1,   -3.9,    4.7,   -0.7,    3.2,   -2.4,   -4.4,   -6.8,  -10.3,   -1.6,    7.7,   14.6,   22.0,  999.0,  999.0,  999.0,  999.0,  999.0,  999.0,  999.0,  999.0,  999.0,  999.0,  999.0,  999.0,  999.0,  999.0,  999.0,  999.0,  999.0,  999.0,   19.5,  999.0
2000/12/12 19:30,  999.0,  999.0,  -10.9,  -10.7,  -15.1,   -3.9,   -2.6,   -6.0,    0.7,    0.7,   -2.4,   -0.6,    1.3,    0.0,   -0.3,   -1.2,   -1.3,    1.0,    3.0,    5.6,    6.4,    4.2,    0.3,    0.5,    2.4,  999.0,    5.9,    7.4,    4.2,    4.2,    5.2,    2.5,  999.0,  999.0,  999.0,  999.0,  999.0,  999.0,  999.0,  999.0,  999.0,  999.0,   32.4,  999.0,  999.0,  999.0,  999.0,  999.0,  999.0,  999.0,  999.0,  999.0,  999.0,  999.0,  999.0,  999.0,  999.0,  999.0
2000/12/12 19:40,  999.0,   -2.6,   11.9,  999.0,   -0.7,    3.6,    3.2,    2.1,    4.7,    5.5,    3.8,    1.3,    2.4,    1.1,    3.2,    3.5,    4.5,    4.4,    7.4,    6.3,    5.2,    7.1,    4.7,    3.1,   -2.0,    4.6,    4.2,    5.9,    6.6,    8.6,   11.6,  999.0,  999.0,  999.0,  999.0,  999.0,  999.0,  999.0,  999.0,    1.0,   -3.3,  999.0,  -13.7,  -13.5,  999.0,  999.0,  -14.8,  -14.2,  -13.8,  -12.4,  999.0,  -12.4,  999.0,   -0.8,   -1.0,   -0.6,   -2.0,  999.0
2000/12/12 19:50,  999.0,    6.5,    6.3,    6.0,    6.7,    9.4,    9.1,    9.0,    9.3,    9.5,    9.9,   10.3,   10.6,   13.0,   13.7,   12.7,   11.5,   10.1,   10.1,   12.3,    6.9,   11.6,    8.1,    4.0,    4.7,    0.4,    1.3,    5.4,    0.4,    6.1,    3.0,    2.2,    0.4,    8.0,   10.5,    5.7,    3.9,    5.5,    5.4,    8.1,    7.7,    2.6,    5.1,   -0.1,   -1.4,    0.3,   -6.2,  999.0,  999.0,    1.1,    0.9,  999.0,   -8.2,  999.0,  999.0,  999.0,    0.6,  -19.9
2000/12/12 20:00,  999.0,    2.0,    2.8,    3.6,    4.7,    5.1,    5.0,    5.1,    5.3,    5.0,    5.8,    6.9,    8.3,   10.1,   11.1,   12.2,   13.1,   13.4,   14.0,   13.9,   14.1,   12.8,   11.6,   11.9,   12.5,   14.0,   14.3,   15.6,   16.0,   15.6,   13.7,   18.9,   19.0,   16.7,   16.8,   18.7,    1.4,    0.2,   18.0,   13.5,   -1.9,   -2.3,    8.7,   27.5,   -1.0,  999.0,   17.5,   15.3,  999.0,  999.0,  999.0,  -10.5,  -10.5,   -3.0,   -0.5,   -4.5,   -1.1,   -5.2
2000/12/12 20:10,  999.0,    3.5,    4.1,    4.4,    4.6,    4.8,    5.5,    5.3,    5.0,    4.8,    5.7,    6.8,    7.5,    8.4,    9.2,   10.0,   10.8,   11.3,   11.5,   12.3,   12.7,   13.0,   12.7,   12.2,   10.7,    9.9,    8.8,    7.8,    7.7,    7.8,    7.8,    7.7,    6.9,    6.5,    5.9,    6.2,    5.5,    4.4,    3.4,    2.7,    2.1,    2.0,    1.1,    0.3,   -0.4,   -2.0,   -3.0,   -3.1,   -3.2,   -2.8,   -2.1,   -1.7,   -0.5,   -2.4,   -2.8,    1.0,    1.5,   -4.9
2000/12/12 20:20,  999.0,    6.7,    7.2,    7.5,    7.3,    6.3,    6.0,    5.8,    5.9,    5.9,    6.2,    6.1,    6.2,    6.6,    6.2,    6.6,    7.5,    8.4,    9.4,    9.9,   10.4,   11.9,    9.8,    9.3,    9.0,    8.0,    7.2,    6.5,    5.6,    5.1,    4.2,    3.9,    3.6,    3.0,    2.4,    1.4,    1.2,    0.9,    0.6,    0.7,    0.8,    1.1,    0.8,    0.5,    0.2,   -1.9,   -1.6,   -1.0,   -0.3,   -0.6,   -1.7,   -2.3,   -3.8,   -2.5,  999.0,  999.0,  999.0,  999.0
2000/12/12 20:30,  999.0,    7.0,    8.2,    8.7,    8.7,    8.4,    8.2,    7.7,    7.9,    7.7,    7.2,    6.5,    6.0,    6.0,    7.2,    8.4,   12.1,   13.4,   14.1,   13.6,   16.9,   15.6,   13.8,   13.6,   13.0,   13.0,   11.8,   11.1,   10.0,   10.7,   10.1,    9.2,    9.1,    8.9,    8.0,    8.8,    8.6,    8.0,    8.0,    7.9,    7.5,    6.4,    7.2,    6.9,    6.7,    9.1,    6.0,    2.5,    1.2,   -1.1,   -0.4,   -4.3,   -6.3,   -8.4,  -10.9,  -12.6,  -14.6,  -16.9
2000/12/12 20:40,  999.0,    8.2,    7.6,    6.2,    7.0,    7.3,   10.6,    7.6,    8.0,   14.6,   15.7,    7.6,   10.9,   13.7,   19.8,   23.1,   25.6,   25.5,   25.1,   26.9,  999.0,  999.0,  999.0,  999.0,  999.0,  999.0,   13.1,  999.0,  999.0,  999.0,  999.0,  999.0,  999.0,  999.0,  999.0,  999.0,  999.0,  999.0,  999.0,  999.0,  999.0,   11.8,  999.0,   14.7,   16.0,   16.6,  999.0,   14.2,  999.0,   11.1,   14.3,   10.6,   11.4,    7.1,   13.8,   13.1,   12.8,   13.2
2000/12/12 20:50,  999.0,    4.7,    5.7,    5.1,    1.8,    4.2,    3.8,    4.7,    6.0,    5.4,    4.3,    4.0,    4.3,    4.6,    4.2,    0.0,    0.4,    5.8,  999.0,   21.3,  999.0,  999.0,  999.0,  999.0,  999.0,  999.0,  999.0,  999.0,  999.0,  999.0,  999.0,  999.0,  999.0,  999.0,  999.0,  999.0,  999.0,  999.0,  999.0,  999.0,  999.0,  999.0,   -0.6,  999.0,  999.0,   -1.4,  999.0,  999.0,  999.0,    0.5,  999.0,   -0.1,    0.8,  999.0,    6.3,    5.8,    5.0,  999.0
2000/12/12 21:00,  999.0,    6.4,    6.6,    8.6,    9.3,    8.8,    7.4,  999.0,  999.0,    7.4,    3.1,    2.7,  999.0,    4.6,    5.3,    5.1,  999.0,  999.0,  999.0,  999.0,  999.0,  999.0,  999.0,  999.0,  999.0,  999.0,  999.0,  999.0,  999.0,  999.0,  999.0,  999.0,  999.0,  999.0,  999.0,  999.0,  999.0,  999.0,  999.0,  999.0,  999.0,  999.0,  999.0,  999.0,  999.0,  999.0,  999.0,  999.0,  999.0,  999.0,  999.0,  999.0,  999.0,  999.0,  999.0,  999.0,  999.0,  999.0
2000/12/12 21:10,  999.0,    9.4,    9.6,    8.2,    5.3,    3.2,   11.0,    6.6,    8.3,   22.0,   21.0,    2.7,    2.4,   12.3,    5.0,    6.2,   13.8,  999.0,   24.1,   24.3,  999.0,   23.3,   17.7,   19.2,   13.7,   11.2,    9.4,   15.2,  999.0,   23.4,   23.2,   11.6,  999.0,   22.1,   22.7,   22.3,   11.5,   11.5,   22.0,   21.8,   11.0,  999.0,    1.4,   22.0,   20.5,   11.0,   21.4,    0.9,   20.5,   10.3,    0.5,  999.0,    9.9,   19.3,    9.9,  999.0,    0.8,    0.7
2000/12/12 21:20,  999.0,    7.2,    9.3,  999.0,    6.5,    1.6,    3.5,    3.7,    2.5,   -4.2,    5.9,    6.5,  999.0,    4.5,  999.0,  999.0,    9.8,  999.0,   21.4,   29.5,   31.2,   41.9,   41.7,   30.7,   29.8,   17.6,   28.9,  999.0,   28.4,   27.9,   27.8,  999.0,   11.0,   26.5,  999.0,   25.3,  999.0,   24.2,    7.0,   23.7,    5.0,   23.2,  999.0,   41.3,   21.8,    0.8,    1.8,  999.0,  999.0,   15.7,    4.9,   20.5,   17.0,   12.6,  999.0,    8.6,    0.9,   39.7
2000/12/12 21:30,  999.0,    5.2,    8.4,   10.8,  999.0,    8.1,    2.9,    6.7,   13.3,  999.0,  999.0,   21.5,  999.0,    6.2,   12.6,    4.0,  999.0,   -0.7,   10.9,    1.9,  999.0,  999.0,   19.9,   18.5,   18.6,   18.1,   16.9,  999.0,   16.1,   14.6,   13.6,   13.8,  999.0,   -8.1,    9.6,  999.0,    9.1,    7.4,    7.1,    5.4,    5.3,  999.0,    1.5,   -6.3,    1.7,  999.0,    1.0,  999.0,    0.5,    0.8,    0.8,  999.0,  -17.2,    0.6,    0.5,  999.0,  999.0,    0.1
2000/12/12 21:40,  999.0,  999.0,   13.3,   17.5,   21.9,  999.0,   21.3,   21.0,   23.5,   21.5,   20.5,   20.1,  999.0,   18.5,   21.3,   18.0,   17.3,   19.1,   17.6,   18.2,   18.7,   17.3,   16.0,   14.3,   13.1,  999.0,   10.6,    8.5,   11.2,    5.4,    6.7,    6.4,    4.0,    3.5,    5.7,    3.9,    4.1,    2.6,    2.1,    1.2,    1.9,    0.9,    0.6,  999.0,    1.0,    0.5,    0.0,    0.9,    0.8,    0.4,    0.4,    0.9,    0.7,    0.9,    0.8,    0.5,    0.7,    1.0
2000/12/12 21:50,  999.0,  999.0,  999.0,   21.5,   22.2,   21.7,   21.4,   20.4,   13.9,   16.2,  999.0,   22.3,   13.5,   11.3,   19.2,   19.4,   19.6,   20.0,   16.1,   12.3,   11.5,    8.6,   12.7,    9.3,   15.8,   16.4,    9.2,    9.5,    6.4,    8.8,    9.1,    4.8,    8.6,    7.6,    4.5,    4.2,    1.4,    2.3,    1.9,    2.0,    0.2,    1.5,    1.0,  999.0,    0.6,    8.4,   14.2,   29.2,    2.8,   13.5,   20.6,   29.5,   11.1,    0.5,    0.6,   14.1,   11.8,   10.9
2000/12/12 22:00,  999.0,  999.0,   21.2,   22.0,   22.1,   21.7,   21.9,   21.5,   20.9,   21.8,   21.3,   21.2,   20.2,   22.8,   21.5,   19.7,   20.1,   18.8,   20.2,   17.3,   20.1,   16.6,   12.4,    8.4,    9.0,    3.5,    9.9,    8.6,  999.0,    5.6,    1.4,    0.6,  999.0,    0.4,    0.9,    0.8,  999.0,  999.0,    0.8,    0.6,    0.9,    0.4,    1.3,    0.8,    1.0,    0.7,    0.2,    1.4,    1.0,    0.4,    0.3,    0.6,    0.9,    0.9,    0.7,    0.7,    0.6,    1.0
2000/12/12 22:10,  999.0,    8.4,   21.6,   22.2,   20.3,    5.5,    9.9,   21.6,   23.5,   17.8,   -6.9,   21.4,   21.0,   22.8,   26.9,   21.2,   28.6,   23.6,   25.7,   28.0,  999.0,   15.8,   34.1,   21.4,   18.7,    3.3,    6.2,   25.3,   26.9,   41.9,  999.0,   41.4,   41.6,   41.4,   41.6,   41.5,   39.6,   43.0,   41.3,   35.9,   42.1,   21.1,   26.9,  999.0,   42.1,   42.1,   42.0,  999.0,   41.8,  999.0,   17.6,   22.9,  999.0,   41.9,   42.4,   42.0,   41.6,   42.0
2000/12/12 22:20,  999.0,   21.7,  999.0,   23.2,   22.9,   22.1,   21.9,   22.0,  999.0,   21.1,   20.5,   21.4,   21.4,   20.4,   21.2,   20.3,   22.0,   22.7,   22.9,   23.1,   27.8,   28.1,   32.1,   31.3,   32.9,   32.0,   36.5,   39.7,   35.9,   39.8,   39.3,   40.2,  999.0,   41.9,   41.2,   41.6,   42.1,   41.9,   42.0,   41.7,   41.6,   41.9,   41.8,   41.5,   41.6,   42.0,   42.0,   42.1,   41.9,   42.3,   41.8,   41.3,   42.3,   41.8,   41.9,   41.9,   41.6,   42.0
2000/12/12 22:30,  999.0,   21.7,  999.0,  999.0,   20.8,   20.5,   20.9,   21.4,   21.0,  999.0,   21.6,   21.1,   21.0,   20.5,   22.2,   27.9,   25.2,   21.4,  999.0,   24.5,  999.0,   26.1,   27.6,   29.6,  999.0,   34.8,   38.4,   34.6,   41.0,   22.0,  999.0,   42.2,   41.8,   41.6,   41.9,   41.8,   41.9,  999.0,   41.5,   42.2,   42.3,   41.8,   42.4,   41.7,   42.4,   42.2,   42.0,   41.6,   42.0,  999.0,  999.0,   42.0,   42.0,   41.8,   41.7,   41.5,   42.0,   41.8
2000/12/12 22:40,  999.0,   21.8,   22.1,  999.0,   21.9,   21.7,   21.9,   21.9,   21.3,   20.8,   21.9,   21.0,  999.0,   20.7,   21.4,   20.4,   23.1,   23.6,   27.9,   31.4,   33.7,   31.8,   32.6,   33.3,   35.7,   41.9,   41.8,   40.7,   42.6,   42.3,   41.9,   42.2,   41.4,   41.8,   41.7,   41.7,  999.0,  999.0,   42.4,   42.0,   42.2,   42.4,  999.0,   41.9,   42.2,  999.0,   41.3,   41.0,   41.6,   42.5,   42.2,   41.7,   41.6,   41.9,   42.0,   42.1,   41.7,   41.8
2000/12/12 22:50,  999.0,    4.8,    6.8,    7.5,   12.3,   21.7,  999.0,   21.5,  999.0,    9.3,   10.7,   20.5,   12.8,    7.2,   30.8,   37.3,   32.3,  999.0,   41.8,   42.7,  -21.4,  999.0,   10.2,   10.2,  999.0,   41.3,   42.2,   43.1,  999.0,  999.0,   41.1,   41.0,  999.0,   42.0,  999.0,  999.0,   42.0,   41.7,   42.0,   42.2,   42.1,  999.0,  999.0,  999.0,  999.0,   41.2,  999.0,  999.0,  999.0,  999.0,   41.3,  999.0,   41.7,   41.8,   41.5,  999.0,  999.0,   41.8
2000/12/12 23:00,  999.0,    2.6,    6.4,   10.1,   10.2,    5.9,    5.5,    6.3,    6.5,    4.8,    4.5,    5.3,    5.1,    4.8,   12.6,  999.0,  999.0,  999.0,  999.0,  999.0,  999.0,  999.0,  -13.7,  -12.2,  -13.0,   -9.8,  -10.4,  999.0,   -8.3,  999.0,  999.0,  999.0,  999.0,  999.0,   -2.9,  999.0,   -1.2,   -1.5,   -1.6,   -0.9,   41.8,   -1.2,   40.6,   -0.6,   -0.5,   -1.0,   -0.7,   30.1,   -0.6,   -2.0,   12.9,   -0.4,  999.0,   17.1,   32.8,   31.3,   29.1,   15.5
2000/12/12 23:10,  999.0,    2.9,    6.9,  999.0,   12.4,   10.6,   10.2,    8.6,  999.0,  999.0,  999.0,   18.1,    7.8,    4.9,   21.1,    9.3,   28.1,  999.0,   36.2,   37.8,  999.0,   -0.5,  999.0,   -0.6,  999.0,   18.4,   34.0,   41.1,   20.8,   41.4,   19.8,   -0.8,   20.5,   30.9,   20.3,   20.4,   -0.8,   41.5,   13.8,  999.0,   -0.2,  999.0,   10.0,    9.8,  999.0,   20.4,   41.3,   20.1,  999.0,   41.3,  -41.1,  -38.4,   -7.7,   -0.5,  -20.8,  -10.9,   -0.7,   -0.4
2000/12/12 23:20,  999.0,    9.3,   10.0,    8.3,    8.5,    7.3,    7.0,    7.9,    3.2,    4.3,    4.7,   10.6,    2.2,    2.4,    4.2,    4.4,    6.1,    5.8,    7.0,   11.2,   13.4,   13.4,   15.6,   12.7,   14.5,   14.9,   16.2,   20.4,   21.4,   23.6,  999.0,   -0.0,    9.0,   -0.3,  999.0,   -0.6,  999.0,    3.4,   -0.9,   -0.9,   -1.1,   -0.9,   -0.4,   -0.5,   -0.3,   -0.6,   -1.1,   -0.9,  999.0,   -0.5,   -0.9,  999.0,   -0.5,   -0.9,   -0.9,   -0.4,   -0.4,   -1.0
2000/12/12 23:30,  999.0,    5.8,    3.1,    7.1,    3.9,    2.9,    4.1,    3.2,    3.0,    5.2,    3.2,    4.3,    8.1,   10.0,   13.9,  999.0,   15.4,   14.6,   14.5,   15.3,   16.2,   17.5,   17.1,   18.0,   18.4,  999.0,  999.0,  999.0,  999.0,  999.0,  999.0,  999.0,  999.0,   26.9,  999.0,  999.0,   27.9,  999.0,  999.0,  999.0,   37.9,  999.0,  999.0,   39.0,   36.1,   42.0,   42.0,  999.0,   41.3,   41.9,   41.7,   41.5,   41.5,   41.7,   41.4,   40.9,   41.9,   41.9
2000/12/12 23:40,  999.0,   12.9,    7.3,    4.8,   -1.1,    0.5,    0.2,   -0.6,    0.7,  999.0,   -0.2,    0.1,  999.0,  999.0,  999.0,  999.0,   23.4,  999.0,   21.0,  999.0,  999.0,  999.0,  999.0,  999.0,  999.0,  999.0,  999.0,  999.0,   40.9,  999.0,  999.0,   41.5,   41.7,   41.5,   41.3,  999.0,   41.5,   41.8,   41.4,   41.4,   40.9,   42.0,   41.4,  999.0,  999.0,   41.7,   41.6,   41.4,   42.6,   41.3,   41.8,   41.3,   41.2,   41.8,   42.1,   41.6,  999.0,   41.4
2000/12/12 23:50,  999.0,   11.2,   12.7,   12.9,   13.5,    6.8,    1.8,    2.4,    6.7,  999.0,   -4.7,    8.1,   -1.6,   20.4,  999.0,  999.0,  999.0,  999.0,  999.0,  999.0,  999.0,   30.8,   36.2,  999.0,   42.3,  999.0,   42.6,   41.8,   41.3,   41.6,   41.8,   40.8,  999.0,   41.3,   41.7,   41.8,   41.7,   42.1,   41.7,  999.0,   41.6,   42.0,   42.0,   41.7,   42.0,   42.0,   41.6,   41.7,   41.7,   42.1,   41.4,   41.7,   41.3,  999.0,  999.0,   41.6,   41.8,   41.6
